GEFSMA_prec_meanprecacc_024.txt.gz
Total_Precipitation_Accumulation
0.00 0.00 0.00 0.00 0.00 0.00 0.00 0.00 0.00 0.00 0.00 0.00 0.00 0.00 0.00 0.00 0.00 0.00 0.00 0.00 0.00 0.00 0.00 0.00 0.00 0.00 0.00 0.00 0.00 0.00 0.00 0.00 0.00 0.00 0.00 0.00 0.00 0.00 0.00 0.00 0.00 0.01 0.01
0.00 0.00 0.00 0.00 0.00 0.00 0.00 0.00 0.00 0.00 0.00 0.00 0.00 0.00 0.00 0.00 0.00 0.00 0.00 0.00 0.00 0.00 0.00 0.00 0.00 0.00 0.00 0.00 0.00 0.00 0.00 0.00 0.00 0.00 0.00 0.00 0.00 0.00 0.00 0.00 0.00 0.00 0.00
0.00 0.00 0.00 0.00 0.00 0.00 0.00 0.00 0.00 0.00 0.00 0.00 0.00 0.00 0.00 0.00 0.00 0.00 0.00 0.00 0.00 0.00 0.00 0.00 0.00 0.00 0.00 0.00 0.00 0.00 0.00 0.00 0.00 0.00 0.00 0.00 0.00 0.00 0.00 0.00 0.00 0.00 0.00
0.00 0.00 0.00 0.00 0.00 0.00 0.00 0.00 0.00 0.00 0.00 0.00 0.00 0.00 0.00 0.00 0.00 0.00 0.00 0.00 0.00 0.00 0.00 0.00 0.00 0.00 0.00 0.00 0.00 0.00 0.00 0.00 0.00 0.00 0.00 0.00 0.00 0.00 0.00 0.00 0.00 0.00 0.00
0.00 0.00 0.00 0.00 0.00 0.00 0.00 0.00 0.00 0.00 0.00 0.00 0.00 0.00 0.00 0.00 0.00 0.00 0.00 0.00 0.00 0.00 0.00 0.00 0.00 0.00 0.00 0.00 0.00 0.00 0.00 0.00 0.00 0.00 0.00 0.00 0.00 0.00 0.00 0.00 0.00 0.00 0.00
0.01 0.00 0.00 0.00 0.00 0.00 0.00 0.00 0.00 0.00 0.00 0.00 0.00 0.00 0.00 0.00 0.00 0.00 0.00 0.00 0.00 0.00 0.00 0.00 0.00 0.00 0.00 0.00 0.00 0.00 0.00 0.00 0.00 0.00 0.00 0.00 0.00 0.00 0.00 0.00 0.00 0.00 0.00
0.03 0.02 0.01 0.00 0.00 0.00 0.00 0.00 0.00 0.00 0.00 0.00 0.00 0.00 0.00 0.00 0.00 0.00 0.00 0.00 0.00 0.00 0.00 0.00 0.00 0.00 0.00 0.00 0.00 0.00 0.00 0.00 0.00 0.00 0.00 0.00 0.00 0.00 0.00 0.00 0.01 0.01 0.01
0.08 0.05 0.04 0.03 0.01 0.00 0.00 0.00 0.00 0.00 0.00 0.00 0.00 0.00 0.00 0.00 0.00 0.00 0.00 0.00 0.00 0.00 0.00 0.00 0.00 0.00 0.00 0.00 0.00 0.00 0.00 0.00 0.00 0.00 0.00 0.00 0.00 0.00 0.01 0.01 0.02 0.02 0.03
0.16 0.11 0.10 0.08 0.04 0.02 0.01 0.01 0.00 0.00 0.00 0.00 0.00 0.00 0.00 0.00 0.00 0.00 0.00 0.00 0.00 0.00 0.00 0.00 0.00 0.00 0.00 0.00 0.00 0.00 0.00 0.00 0.00 0.00 0.00 0.00 0.00 0.01 0.01 0.03 0.04 0.05 0.06
0.19 0.16 0.14 0.10 0.07 0.04 0.03 0.01 0.00 0.00 0.00 0.00 0.00 0.00 0.00 0.00 0.00 0.00 0.00 0.00 0.00 0.00 0.00 0.00 0.00 0.00 0.00 0.00 0.00 0.00 0.00 0.00 0.00 0.00 0.00 0.00 0.01 0.02 0.03 0.05 0.07 0.09 0.09
0.15 0.15 0.15 0.13 0.09 0.06 0.04 0.02 0.01 0.00 0.00 0.00 0.00 0.00 0.00 0.00 0.00 0.00 0.00 0.00 0.00 0.00 0.00 0.00 0.00 0.00 0.00 0.00 0.00 0.00 0.00 0.00 0.00 0.00 0.00 0.01 0.02 0.03 0.06 0.07 0.09 0.09 0.10
0.11 0.11 0.12 0.12 0.12 0.09 0.07 0.04 0.02 0.01 0.00 0.00 0.00 0.00 0.00 0.00 0.00 0.00 0.00 0.00 0.00 0.00 0.00 0.00 0.00 0.00 0.00 0.00 0.00 0.00 0.00 0.00 0.00 0.00 0.00 0.02 0.04 0.06 0.08 0.09 0.09 0.09 0.10
0.09 0.09 0.11 0.12 0.13 0.12 0.10 0.07 0.03 0.01 0.00 0.00 0.00 0.00 0.00 0.00 0.00 0.00 0.00 0.00 0.00 0.00 0.00 0.00 0.00 0.00 0.00 0.00 0.00 0.00 0.00 0.00 0.00 0.00 0.01 0.03 0.05 0.05 0.05 0.06 0.08 0.09 0.11
0.15 0.17 0.17 0.16 0.16 0.13 0.10 0.07 0.04 0.02 0.01 0.00 0.00 0.00 0.00 0.00 0.00 0.00 0.00 0.00 0.00 0.00 0.00 0.00 0.00 0.00 0.00 0.00 0.00 0.00 0.00 0.00 0.00 0.00 0.01 0.02 0.02 0.03 0.03 0.05 0.07 0.09 0.10
0.15 0.16 0.17 0.16 0.14 0.12 0.10 0.07 0.04 0.02 0.01 0.00 0.00 0.00 0.00 0.00 0.00 0.00 0.00 0.00 0.00 0.00 0.00 0.00 0.00 0.00 0.00 0.00 0.00 0.00 0.00 0.00 0.00 0.00 0.01 0.01 0.02 0.03 0.03 0.05 0.06 0.07 0.08
0.12 0.13 0.15 0.14 0.13 0.11 0.08 0.05 0.04 0.02 0.01 0.01 0.00 0.00 0.00 0.00 0.00 0.00 0.00 0.00 0.00 0.00 0.00 0.00 0.00 0.00 0.00 0.00 0.00 0.00 0.00 0.00 0.00 0.00 0.01 0.02 0.02 0.02 0.03 0.04 0.05 0.06 0.08
0.12 0.13 0.14 0.14 0.11 0.09 0.06 0.05 0.04 0.03 0.02 0.02 0.02 0.02 0.02 0.02 0.01 0.01 0.01 0.00 0.00 0.00 0.00 0.00 0.00 0.00 0.00 0.00 0.00 0.00 0.00 0.01 0.01 0.01 0.01 0.01 0.01 0.02 0.03 0.04 0.05 0.07 0.09
0.11 0.12 0.12 0.10 0.07 0.05 0.04 0.03 0.03 0.03 0.03 0.03 0.03 0.03 0.02 0.02 0.01 0.01 0.01 0.00 0.00 0.00 0.00 0.00 0.00 0.00 0.00 0.00 0.00 0.01 0.00 0.01 0.01 0.00 0.00 0.01 0.01 0.02 0.03 0.04 0.06 0.08 0.09
0.10 0.09 0.07 0.06 0.04 0.03 0.02 0.02 0.02 0.03 0.03 0.03 0.03 0.03 0.03 0.02 0.02 0.01 0.01 0.01 0.00 0.00 0.00 0.00 0.00 0.00 0.01 0.01 0.01 0.00 0.00 0.00 0.00 0.00 0.00 0.00 0.00 0.01 0.02 0.04 0.04 0.05 0.05
0.07 0.06 0.04 0.03 0.03 0.03 0.03 0.03 0.03 0.04 0.04 0.04 0.04 0.03 0.03 0.03 0.02 0.02 0.02 0.01 0.01 0.00 0.01 0.01 0.03 0.03 0.02 0.01 0.00 0.00 0.00 0.00 0.00 0.00 0.00 0.00 0.00 0.00 0.01 0.01 0.01 0.01 0.01
0.04 0.04 0.04 0.04 0.04 0.04 0.04 0.04 0.05 0.05 0.05 0.05 0.05 0.06 0.05 0.04 0.03 0.02 0.01 0.01 0.01 0.02 0.05 0.09 0.07 0.04 0.01 0.00 0.00 0.00 0.01 0.01 0.00 0.00 0.00 0.00 0.00 0.00 0.00 0.00 0.00 0.00 0.01
0.06 0.06 0.07 0.07 0.07 0.06 0.08 0.06 0.05 0.05 0.06 0.07 0.08 0.07 0.05 0.03 0.02 0.01 0.01 0.01 0.03 0.09 0.11 0.08 0.04 0.02 0.00 0.00 0.00 0.01 0.03 0.04 0.03 0.00 0.00 0.00 0.00 0.00 0.00 0.00 0.00 0.00 0.01
0.14 0.12 0.11 0.10 0.10 0.11 0.12 0.11 0.11 0.11 0.11 0.10 0.08 0.05 0.03 0.02 0.01 0.00 0.00 0.02 0.05 0.06 0.05 0.04 0.02 0.00 0.00 0.01 0.03 0.06 0.06 0.06 0.04 0.00 0.01 0.00 0.00 0.00 0.00 0.00 0.00 0.00 0.01
0.25 0.22 0.20 0.18 0.19 0.20 0.21 0.18 0.14 0.11 0.08 0.05 0.03 0.01 0.01 0.00 0.00 0.01 0.03 0.05 0.03 0.01 0.00 0.00 0.00 0.01 0.01 0.02 0.04 0.08 0.06 0.04 0.01 0.00 0.00 0.00 0.00 0.00 0.00 0.00 0.00 0.00 0.00
0.43 0.38 0.33 0.30 0.28 0.24 0.19 0.13 0.08 0.06 0.04 0.02 0.01 0.00 0.00 0.00 0.01 0.04 0.05 0.03 0.01 0.00 0.00 0.00 0.01 0.02 0.02 0.02 0.01 0.02 0.02 0.06 0.04 0.00 0.00 0.00 0.00 0.00 0.00 0.00 0.00 0.00 0.00
0.37 0.31 0.26 0.20 0.15 0.10 0.06 0.04 0.02 0.01 0.01 0.00 0.00 0.00 0.00 0.01 0.03 0.05 0.04 0.02 0.01 0.00 0.01 0.01 0.00 0.00 0.00 0.00 0.00 0.00 0.03 0.13 0.14 0.07 0.00 0.02 0.03 0.05 0.08 0.01 0.00 0.00 0.00

GEFSMA_prec_meanprecacc_030.txt.gz
Total_Precipitation_Accumulation
0.00 0.00 0.00 0.01 0.00 0.00 0.00 0.00 0.00 0.00 0.00 0.00 0.00 0.00 0.00 0.00 0.00 0.00 0.00 0.00 0.00 0.00 0.00 0.00 0.00 0.00 0.00 0.00 0.00 0.00 0.00 0.00 0.00 0.00 0.00 0.00 0.00 0.00 0.00 0.00 0.00 0.01 0.01
0.00 0.00 0.00 0.00 0.00 0.00 0.00 0.00 0.00 0.00 0.00 0.00 0.00 0.00 0.00 0.00 0.00 0.00 0.00 0.00 0.00 0.00 0.00 0.00 0.00 0.00 0.00 0.00 0.00 0.00 0.00 0.00 0.00 0.00 0.00 0.00 0.00 0.00 0.00 0.00 0.00 0.00 0.00
0.00 0.00 0.00 0.00 0.00 0.00 0.00 0.00 0.00 0.00 0.00 0.00 0.00 0.00 0.00 0.00 0.00 0.00 0.00 0.00 0.00 0.00 0.00 0.00 0.00 0.00 0.00 0.00 0.00 0.00 0.00 0.00 0.00 0.00 0.00 0.00 0.00 0.00 0.00 0.00 0.00 0.00 0.00
0.00 0.00 0.00 0.00 0.00 0.00 0.00 0.00 0.00 0.00 0.00 0.00 0.00 0.00 0.00 0.00 0.00 0.00 0.00 0.00 0.00 0.00 0.00 0.00 0.00 0.00 0.00 0.00 0.00 0.00 0.00 0.00 0.00 0.00 0.00 0.00 0.00 0.00 0.00 0.00 0.00 0.00 0.00
0.02 0.01 0.00 0.00 0.00 0.00 0.00 0.00 0.00 0.00 0.00 0.00 0.00 0.00 0.00 0.00 0.00 0.00 0.00 0.00 0.00 0.00 0.00 0.00 0.00 0.00 0.00 0.00 0.00 0.00 0.00 0.00 0.00 0.00 0.00 0.00 0.00 0.00 0.00 0.00 0.00 0.00 0.00
0.05 0.03 0.02 0.01 0.00 0.00 0.00 0.00 0.00 0.00 0.00 0.00 0.00 0.00 0.00 0.00 0.00 0.00 0.00 0.00 0.00 0.00 0.00 0.00 0.00 0.00 0.00 0.00 0.00 0.00 0.00 0.00 0.00 0.00 0.00 0.00 0.00 0.00 0.00 0.00 0.00 0.00 0.01
0.10 0.07 0.03 0.02 0.01 0.00 0.00 0.00 0.00 0.00 0.00 0.00 0.00 0.00 0.00 0.00 0.00 0.00 0.00 0.00 0.00 0.00 0.00 0.00 0.00 0.00 0.00 0.00 0.00 0.00 0.00 0.00 0.00 0.00 0.00 0.00 0.00 0.00 0.00 0.01 0.01 0.01 0.01
0.13 0.10 0.06 0.06 0.05 0.02 0.01 0.00 0.00 0.00 0.00 0.00 0.00 0.00 0.00 0.00 0.00 0.00 0.00 0.00 0.00 0.00 0.00 0.00 0.00 0.00 0.00 0.00 0.00 0.00 0.00 0.00 0.00 0.00 0.00 0.00 0.00 0.00 0.01 0.01 0.02 0.03 0.03
0.19 0.16 0.15 0.14 0.11 0.07 0.03 0.02 0.01 0.00 0.00 0.00 0.00 0.00 0.00 0.00 0.00 0.00 0.00 0.00 0.00 0.00 0.00 0.00 0.00 0.00 0.00 0.00 0.00 0.00 0.00 0.00 0.00 0.00 0.00 0.00 0.00 0.01 0.02 0.03 0.05 0.06 0.07
0.23 0.23 0.23 0.22 0.18 0.13 0.08 0.05 0.02 0.01 0.00 0.00 0.00 0.00 0.00 0.00 0.00 0.00 0.00 0.00 0.00 0.00 0.00 0.00 0.00 0.00 0.00 0.00 0.00 0.00 0.00 0.00 0.00 0.00 0.00 0.00 0.01 0.02 0.04 0.06 0.09 0.10 0.11
0.18 0.21 0.22 0.22 0.20 0.17 0.14 0.10 0.06 0.04 0.02 0.01 0.00 0.00 0.00 0.00 0.00 0.00 0.00 0.00 0.00 0.00 0.00 0.00 0.00 0.00 0.00 0.00 0.00 0.00 0.00 0.00 0.00 0.00 0.00 0.01 0.02 0.04 0.06 0.09 0.10 0.11 0.11
0.13 0.14 0.17 0.18 0.20 0.20 0.19 0.17 0.15 0.11 0.07 0.04 0.02 0.01 0.01 0.00 0.00 0.00 0.00 0.00 0.00 0.00 0.00 0.00 0.00 0.00 0.00 0.00 0.00 0.00 0.00 0.00 0.00 0.00 0.00 0.02 0.04 0.06 0.08 0.09 0.10 0.10 0.11
0.10 0.11 0.14 0.18 0.22 0.25 0.27 0.26 0.21 0.16 0.12 0.08 0.05 0.03 0.02 0.01 0.00 0.00 0.00 0.00 0.00 0.00 0.00 0.00 0.00 0.00 0.00 0.00 0.00 0.00 0.00 0.00 0.00 0.00 0.01 0.03 0.05 0.05 0.06 0.07 0.08 0.10 0.12
0.16 0.20 0.21 0.23 0.25 0.26 0.25 0.24 0.23 0.20 0.16 0.12 0.08 0.05 0.03 0.02 0.01 0.00 0.00 0.00 0.00 0.00 0.00 0.00 0.00 0.00 0.00 0.00 0.00 0.00 0.00 0.00 0.00 0.00 0.01 0.02 0.02 0.03 0.04 0.05 0.07 0.09 0.11
0.17 0.18 0.20 0.21 0.21 0.22 0.22 0.22 0.21 0.19 0.16 0.13 0.09 0.07 0.04 0.03 0.02 0.01 0.01 0.00 0.00 0.01 0.01 0.01 0.01 0.00 0.00 0.00 0.00 0.00 0.00 0.00 0.00 0.00 0.01 0.01 0.02 0.03 0.04 0.05 0.06 0.08 0.09
0.13 0.14 0.17 0.18 0.18 0.18 0.17 0.17 0.16 0.14 0.13 0.11 0.09 0.08 0.07 0.05 0.04 0.03 0.02 0.02 0.02 0.03 0.03 0.02 0.02 0.01 0.01 0.01 0.01 0.00 0.00 0.00 0.00 0.00 0.01 0.02 0.02 0.02 0.03 0.04 0.06 0.07 0.09
0.12 0.14 0.16 0.16 0.15 0.14 0.13 0.12 0.11 0.10 0.09 0.08 0.08 0.08 0.08 0.07 0.06 0.06 0.06 0.06 0.06 0.06 0.06 0.04 0.03 0.03 0.03 0.02 0.01 0.00 0.00 0.01 0.01 0.01 0.01 0.01 0.01 0.02 0.03 0.05 0.06 0.08 0.10
0.12 0.14 0.14 0.12 0.10 0.08 0.07 0.07 0.07 0.06 0.06 0.07 0.08 0.09 0.10 0.09 0.09 0.09 0.10 0.10 0.10 0.09 0.08 0.06 0.04 0.03 0.03 0.02 0.01 0.01 0.00 0.01 0.01 0.00 0.00 0.01 0.01 0.02 0.03 0.04 0.06 0.08 0.10
0.11 0.10 0.08 0.07 0.06 0.05 0.05 0.04 0.05 0.05 0.06 0.07 0.09 0.10 0.11 0.12 0.13 0.14 0.15 0.16 0.15 0.12 0.09 0.05 0.03 0.02 0.02 0.02 0.01 0.01 0.00 0.00 0.00 0.00 0.00 0.00 0.00 0.01 0.02 0.04 0.05 0.05 0.05
0.08 0.06 0.05 0.04 0.04 0.05 0.05 0.06 0.06 0.07 0.08 0.10 0.11 0.14 0.16 0.19 0.22 0.23 0.22 0.19 0.14 0.10 0.06 0.05 0.04 0.04 0.03 0.01 0.00 0.00 0.00 0.00 0.00 0.00 0.00 0.00 0.00 0.00 0.01 0.01 0.01 0.01 0.02
0.05 0.04 0.04 0.05 0.05 0.06 0.07 0.08 0.09 0.11 0.14 0.17 0.20 0.23 0.25 0.27 0.26 0.21 0.16 0.12 0.08 0.06 0.08 0.11 0.09 0.04 0.01 0.00 0.00 0.00 0.01 0.01 0.00 0.00 0.00 0.00 0.00 0.00 0.00 0.00 0.00 0.00 0.01
0.07 0.07 0.08 0.09 0.10 0.11 0.16 0.15 0.12 0.13 0.18 0.22 0.24 0.25 0.24 0.21 0.16 0.12 0.08 0.06 0.06 0.11 0.12 0.09 0.05 0.02 0.00 0.00 0.00 0.01 0.03 0.04 0.03 0.00 0.00 0.00 0.00 0.00 0.00 0.00 0.00 0.00 0.01
0.16 0.16 0.16 0.16 0.17 0.22 0.27 0.24 0.25 0.23 0.24 0.24 0.23 0.19 0.14 0.10 0.06 0.04 0.03 0.04 0.06 0.07 0.05 0.04 0.02 0.00 0.01 0.01 0.04 0.07 0.06 0.07 0.05 0.00 0.01 0.00 0.00 0.00 0.00 0.00 0.00 0.00 0.01
0.35 0.35 0.34 0.34 0.35 0.39 0.40 0.35 0.30 0.24 0.21 0.17 0.13 0.09 0.06 0.04 0.02 0.02 0.03 0.05 0.03 0.01 0.00 0.00 0.01 0.01 0.02 0.03 0.05 0.09 0.08 0.05 0.01 0.00 0.00 0.00 0.00 0.00 0.00 0.00 0.00 0.00 0.00
0.62 0.61 0.60 0.57 0.53 0.49 0.41 0.29 0.20 0.15 0.11 0.07 0.04 0.02 0.01 0.01 0.01 0.04 0.05 0.03 0.01 0.00 0.00 0.00 0.02 0.02 0.02 0.02 0.02 0.02 0.03 0.06 0.05 0.00 0.00 0.00 0.00 0.00 0.00 0.00 0.00 0.00 0.00
0.59 0.56 0.52 0.47 0.40 0.31 0.22 0.13 0.08 0.05 0.02 0.01 0.00 0.00 0.00 0.01 0.03 0.06 0.05 0.03 0.01 0.00 0.01 0.01 0.00 0.00 0.00 0.00 0.00 0.00 0.03 0.14 0.15 0.07 0.00 0.02 0.03 0.05 0.09 0.01 0.00 0.00 0.00

GEFSMA_prec_meanprecacc_036.txt.gz
Total_Precipitation_Accumulation
0.00 0.00 0.01 0.01 0.01 0.00 0.00 0.00 0.00 0.00 0.00 0.00 0.00 0.00 0.00 0.00 0.00 0.00 0.00 0.00 0.00 0.00 0.00 0.00 0.00 0.00 0.00 0.00 0.00 0.00 0.00 0.00 0.00 0.00 0.00 0.00 0.00 0.00 0.00 0.00 0.00 0.01 0.01
0.00 0.00 0.00 0.01 0.01 0.00 0.00 0.00 0.00 0.00 0.00 0.00 0.00 0.00 0.00 0.00 0.00 0.00 0.00 0.00 0.00 0.00 0.00 0.00 0.00 0.00 0.00 0.00 0.00 0.00 0.00 0.00 0.00 0.00 0.00 0.00 0.00 0.00 0.00 0.00 0.00 0.00 0.00
0.00 0.00 0.00 0.00 0.00 0.00 0.00 0.00 0.00 0.00 0.00 0.00 0.00 0.00 0.00 0.00 0.00 0.00 0.00 0.00 0.00 0.00 0.00 0.00 0.00 0.00 0.00 0.00 0.00 0.00 0.00 0.00 0.00 0.00 0.00 0.00 0.00 0.00 0.00 0.00 0.00 0.00 0.00
0.00 0.00 0.00 0.00 0.00 0.00 0.00 0.00 0.00 0.00 0.00 0.00 0.00 0.00 0.00 0.00 0.00 0.00 0.00 0.00 0.00 0.00 0.00 0.00 0.00 0.00 0.00 0.00 0.00 0.00 0.00 0.00 0.00 0.00 0.00 0.00 0.00 0.00 0.00 0.00 0.00 0.00 0.00
0.03 0.01 0.00 0.00 0.00 0.00 0.00 0.00 0.00 0.00 0.00 0.00 0.00 0.00 0.00 0.00 0.00 0.00 0.00 0.00 0.00 0.00 0.00 0.00 0.00 0.00 0.00 0.00 0.00 0.00 0.00 0.00 0.00 0.00 0.00 0.00 0.00 0.00 0.00 0.00 0.00 0.00 0.00
0.07 0.04 0.02 0.02 0.01 0.00 0.00 0.00 0.00 0.00 0.00 0.00 0.00 0.00 0.00 0.00 0.00 0.00 0.00 0.00 0.00 0.00 0.00 0.00 0.00 0.00 0.00 0.00 0.00 0.00 0.00 0.00 0.00 0.00 0.00 0.00 0.00 0.00 0.00 0.00 0.00 0.01 0.01
0.11 0.09 0.04 0.03 0.02 0.01 0.01 0.01 0.00 0.00 0.00 0.00 0.00 0.00 0.00 0.00 0.00 0.00 0.00 0.00 0.00 0.00 0.00 0.00 0.00 0.00 0.00 0.00 0.00 0.00 0.00 0.00 0.00 0.00 0.00 0.00 0.00 0.00 0.00 0.01 0.01 0.01 0.02
0.14 0.11 0.07 0.07 0.07 0.05 0.02 0.02 0.01 0.00 0.00 0.00 0.00 0.00 0.00 0.00 0.00 0.00 0.00 0.00 0.00 0.00 0.00 0.00 0.00 0.00 0.00 0.00 0.00 0.00 0.00 0.00 0.00 0.00 0.00 0.00 0.00 0.00 0.01 0.01 0.02 0.03 0.04
0.20 0.17 0.16 0.16 0.14 0.10 0.06 0.05 0.03 0.02 0.01 0.01 0.01 0.00 0.00 0.00 0.00 0.00 0.00 0.00 0.00 0.00 0.00 0.00 0.00 0.00 0.00 0.00 0.00 0.00 0.00 0.00 0.00 0.00 0.00 0.00 0.00 0.01 0.02 0.03 0.05 0.06 0.08
0.26 0.25 0.25 0.24 0.21 0.16 0.12 0.10 0.08 0.06 0.03 0.02 0.02 0.01 0.01 0.00 0.00 0.00 0.00 0.00 0.00 0.00 0.00 0.00 0.00 0.00 0.00 0.00 0.00 0.00 0.00 0.00 0.00 0.00 0.00 0.00 0.01 0.02 0.04 0.07 0.09 0.11 0.12
0.22 0.25 0.26 0.26 0.23 0.20 0.19 0.16 0.12 0.11 0.07 0.05 0.03 0.04 0.03 0.01 0.00 0.00 0.00 0.00 0.00 0.00 0.00 0.00 0.00 0.00 0.00 0.00 0.00 0.00 0.00 0.00 0.00 0.00 0.00 0.01 0.02 0.04 0.06 0.09 0.11 0.12 0.12
0.16 0.19 0.22 0.23 0.24 0.24 0.24 0.23 0.22 0.20 0.16 0.12 0.07 0.07 0.07 0.05 0.03 0.02 0.02 0.01 0.01 0.00 0.00 0.00 0.00 0.00 0.00 0.00 0.00 0.00 0.00 0.00 0.00 0.00 0.00 0.02 0.04 0.06 0.08 0.10 0.10 0.11 0.11
0.12 0.15 0.20 0.23 0.27 0.30 0.34 0.34 0.29 0.26 0.24 0.20 0.15 0.12 0.11 0.09 0.07 0.06 0.05 0.03 0.02 0.01 0.01 0.01 0.00 0.00 0.00 0.00 0.00 0.00 0.00 0.00 0.00 0.00 0.01 0.03 0.05 0.05 0.06 0.07 0.08 0.10 0.12
0.17 0.23 0.26 0.28 0.30 0.32 0.32 0.33 0.32 0.30 0.28 0.25 0.22 0.17 0.14 0.12 0.10 0.10 0.10 0.10 0.09 0.07 0.05 0.05 0.04 0.03 0.03 0.02 0.02 0.01 0.01 0.00 0.00 0.00 0.01 0.02 0.03 0.03 0.04 0.05 0.07 0.09 0.11
0.18 0.21 0.24 0.26 0.26 0.28 0.29 0.29 0.30 0.29 0.27 0.24 0.22 0.20 0.18 0.16 0.15 0.15 0.17 0.20 0.23 0.24 0.19 0.14 0.11 0.08 0.07 0.05 0.03 0.02 0.02 0.01 0.01 0.01 0.01 0.01 0.02 0.03 0.04 0.05 0.07 0.08 0.09
0.14 0.16 0.19 0.21 0.22 0.22 0.22 0.23 0.22 0.21 0.20 0.19 0.18 0.19 0.19 0.20 0.21 0.22 0.24 0.26 0.29 0.30 0.29 0.22 0.17 0.15 0.14 0.11 0.09 0.06 0.03 0.02 0.01 0.01 0.01 0.02 0.02 0.02 0.03 0.05 0.06 0.07 0.09
0.13 0.15 0.17 0.18 0.17 0.17 0.17 0.16 0.14 0.13 0.13 0.13 0.13 0.15 0.17 0.18 0.21 0.24 0.27 0.31 0.35 0.39 0.43 0.38 0.31 0.27 0.23 0.18 0.12 0.06 0.03 0.02 0.01 0.01 0.01 0.01 0.01 0.02 0.03 0.05 0.06 0.08 0.10
0.13 0.15 0.15 0.14 0.13 0.12 0.11 0.10 0.10 0.09 0.09 0.10 0.12 0.14 0.16 0.17 0.20 0.23 0.28 0.33 0.37 0.39 0.40 0.37 0.30 0.24 0.18 0.13 0.08 0.05 0.02 0.02 0.01 0.01 0.00 0.01 0.01 0.02 0.03 0.04 0.06 0.08 0.10
0.12 0.11 0.10 0.10 0.09 0.08 0.08 0.07 0.07 0.08 0.09 0.11 0.12 0.14 0.16 0.18 0.22 0.26 0.30 0.34 0.35 0.33 0.30 0.25 0.19 0.13 0.10 0.07 0.05 0.03 0.01 0.01 0.00 0.00 0.00 0.00 0.01 0.01 0.02 0.04 0.05 0.05 0.05
0.09 0.07 0.06 0.06 0.06 0.07 0.07 0.07 0.08 0.10 0.11 0.13 0.16 0.19 0.23 0.28 0.34 0.37 0.37 0.35 0.30 0.24 0.19 0.15 0.13 0.10 0.07 0.04 0.02 0.01 0.00 0.00 0.00 0.00 0.00 0.00 0.00 0.00 0.01 0.01 0.01 0.01 0.02
0.05 0.05 0.05 0.06 0.06 0.07 0.09 0.09 0.10 0.13 0.17 0.20 0.25 0.30 0.35 0.41 0.42 0.36 0.29 0.22 0.16 0.13 0.13 0.15 0.12 0.07 0.03 0.01 0.01 0.00 0.01 0.01 0.00 0.00 0.00 0.00 0.00 0.00 0.00 0.00 0.00 0.00 0.01
0.08 0.08 0.09 0.10 0.11 0.12 0.18 0.17 0.15 0.17 0.23 0.28 0.31 0.33 0.34 0.34 0.28 0.23 0.17 0.13 0.11 0.15 0.15 0.11 0.07 0.03 0.01 0.00 0.00 0.01 0.03 0.05 0.03 0.00 0.00 0.00 0.00 0.00 0.00 0.00 0.00 0.00 0.01
0.17 0.17 0.16 0.16 0.18 0.23 0.29 0.29 0.31 0.29 0.32 0.34 0.32 0.28 0.23 0.18 0.15 0.10 0.09 0.08 0.10 0.09 0.07 0.05 0.03 0.01 0.01 0.01 0.04 0.07 0.07 0.07 0.05 0.00 0.01 0.00 0.00 0.00 0.00 0.00 0.00 0.00 0.01
0.36 0.35 0.35 0.34 0.36 0.41 0.44 0.39 0.35 0.30 0.29 0.27 0.22 0.16 0.12 0.09 0.06 0.06 0.06 0.06 0.03 0.01 0.00 0.01 0.01 0.01 0.02 0.03 0.05 0.10 0.08 0.05 0.02 0.00 0.00 0.00 0.00 0.00 0.00 0.00 0.00 0.00 0.00
0.62 0.62 0.61 0.59 0.56 0.53 0.46 0.34 0.26 0.21 0.17 0.13 0.09 0.06 0.04 0.02 0.02 0.04 0.05 0.03 0.01 0.00 0.00 0.00 0.02 0.02 0.02 0.02 0.02 0.02 0.03 0.06 0.05 0.00 0.00 0.00 0.00 0.00 0.00 0.00 0.00 0.00 0.00
0.60 0.57 0.55 0.50 0.44 0.36 0.27 0.18 0.11 0.08 0.05 0.03 0.01 0.01 0.01 0.01 0.03 0.06 0.05 0.03 0.01 0.00 0.01 0.01 0.00 0.00 0.00 0.00 0.00 0.00 0.03 0.14 0.15 0.08 0.00 0.02 0.03 0.05 0.09 0.01 0.00 0.00 0.00

GEFSMA_prec_meanprecacc_042.txt.gz
Total_Precipitation_Accumulation
0.00 0.00 0.01 0.01 0.01 0.00 0.00 0.00 0.00 0.00 0.00 0.00 0.00 0.00 0.00 0.00 0.00 0.00 0.00 0.00 0.00 0.00 0.00 0.00 0.00 0.00 0.00 0.00 0.00 0.00 0.00 0.00 0.00 0.00 0.00 0.00 0.00 0.00 0.00 0.00 0.00 0.01 0.01
0.00 0.00 0.00 0.01 0.01 0.00 0.00 0.00 0.00 0.00 0.00 0.00 0.00 0.00 0.00 0.00 0.00 0.00 0.00 0.00 0.00 0.00 0.00 0.00 0.00 0.00 0.00 0.00 0.00 0.00 0.00 0.00 0.00 0.00 0.00 0.00 0.00 0.00 0.00 0.00 0.00 0.00 0.00
0.00 0.00 0.00 0.00 0.00 0.00 0.00 0.00 0.00 0.00 0.00 0.00 0.00 0.00 0.00 0.00 0.00 0.00 0.00 0.00 0.00 0.00 0.00 0.00 0.00 0.00 0.00 0.00 0.00 0.00 0.00 0.00 0.00 0.00 0.00 0.00 0.00 0.00 0.00 0.00 0.00 0.00 0.00
0.01 0.00 0.00 0.00 0.00 0.00 0.01 0.01 0.00 0.00 0.00 0.00 0.00 0.00 0.00 0.00 0.00 0.00 0.00 0.00 0.00 0.00 0.00 0.00 0.00 0.00 0.00 0.00 0.00 0.00 0.00 0.00 0.00 0.00 0.00 0.00 0.00 0.00 0.00 0.00 0.00 0.00 0.00
0.04 0.02 0.01 0.01 0.01 0.01 0.01 0.02 0.02 0.01 0.01 0.00 0.00 0.00 0.00 0.00 0.00 0.00 0.00 0.00 0.00 0.00 0.00 0.00 0.00 0.00 0.00 0.00 0.00 0.00 0.00 0.00 0.00 0.00 0.00 0.00 0.00 0.00 0.00 0.00 0.00 0.00 0.00
0.10 0.08 0.04 0.03 0.03 0.02 0.02 0.02 0.03 0.03 0.02 0.02 0.01 0.00 0.00 0.00 0.00 0.00 0.00 0.00 0.00 0.00 0.00 0.00 0.00 0.00 0.00 0.00 0.00 0.00 0.00 0.00 0.00 0.00 0.00 0.00 0.00 0.00 0.00 0.00 0.00 0.01 0.01
0.16 0.14 0.09 0.07 0.06 0.05 0.05 0.05 0.07 0.06 0.05 0.04 0.03 0.01 0.00 0.00 0.00 0.00 0.00 0.00 0.00 0.00 0.00 0.00 0.00 0.00 0.00 0.00 0.00 0.00 0.00 0.00 0.00 0.00 0.00 0.00 0.00 0.00 0.00 0.01 0.01 0.01 0.02
0.19 0.16 0.12 0.12 0.13 0.12 0.10 0.09 0.08 0.06 0.07 0.07 0.04 0.03 0.01 0.00 0.00 0.00 0.00 0.00 0.00 0.00 0.00 0.00 0.00 0.00 0.00 0.00 0.00 0.00 0.00 0.00 0.00 0.00 0.00 0.00 0.00 0.00 0.01 0.01 0.02 0.03 0.04
0.24 0.21 0.21 0.21 0.20 0.18 0.14 0.14 0.14 0.12 0.11 0.11 0.08 0.06 0.02 0.00 0.01 0.00 0.01 0.01 0.00 0.00 0.00 0.01 0.00 0.00 0.00 0.00 0.00 0.00 0.00 0.00 0.00 0.00 0.00 0.00 0.00 0.01 0.02 0.03 0.05 0.07 0.08
0.29 0.28 0.28 0.28 0.26 0.23 0.19 0.19 0.20 0.19 0.16 0.12 0.11 0.08 0.06 0.03 0.02 0.01 0.01 0.02 0.02 0.01 0.01 0.01 0.01 0.01 0.00 0.00 0.00 0.00 0.00 0.00 0.00 0.00 0.00 0.00 0.01 0.02 0.04 0.07 0.09 0.11 0.12
0.23 0.27 0.29 0.30 0.27 0.26 0.26 0.25 0.24 0.24 0.20 0.17 0.15 0.15 0.14 0.08 0.04 0.04 0.03 0.03 0.03 0.03 0.02 0.01 0.01 0.01 0.01 0.01 0.01 0.01 0.00 0.00 0.00 0.00 0.00 0.01 0.02 0.04 0.07 0.09 0.11 0.12 0.12
0.17 0.20 0.24 0.26 0.28 0.29 0.30 0.31 0.34 0.34 0.31 0.25 0.19 0.19 0.20 0.16 0.11 0.09 0.09 0.07 0.06 0.05 0.04 0.03 0.02 0.02 0.02 0.02 0.02 0.03 0.03 0.02 0.02 0.01 0.01 0.03 0.05 0.07 0.09 0.10 0.11 0.11 0.11
0.12 0.15 0.21 0.25 0.30 0.35 0.41 0.42 0.40 0.38 0.38 0.33 0.27 0.23 0.22 0.21 0.20 0.19 0.17 0.12 0.09 0.07 0.06 0.06 0.05 0.05 0.05 0.06 0.07 0.10 0.10 0.10 0.08 0.06 0.06 0.08 0.10 0.10 0.09 0.09 0.10 0.11 0.12
0.17 0.23 0.26 0.29 0.32 0.35 0.37 0.39 0.40 0.40 0.40 0.38 0.35 0.30 0.25 0.23 0.24 0.25 0.27 0.28 0.26 0.21 0.18 0.17 0.15 0.16 0.17 0.19 0.22 0.23 0.21 0.22 0.20 0.17 0.16 0.17 0.15 0.12 0.11 0.10 0.10 0.10 0.11
0.18 0.21 0.24 0.26 0.27 0.29 0.32 0.34 0.36 0.36 0.36 0.35 0.33 0.33 0.30 0.29 0.30 0.34 0.40 0.47 0.55 0.54 0.45 0.37 0.35 0.34 0.33 0.32 0.34 0.32 0.29 0.31 0.29 0.27 0.25 0.22 0.18 0.15 0.12 0.11 0.10 0.10 0.11
0.14 0.16 0.19 0.21 0.22 0.23 0.24 0.25 0.26 0.26 0.27 0.26 0.27 0.30 0.32 0.34 0.38 0.41 0.46 0.51 0.57 0.62 0.60 0.48 0.42 0.43 0.44 0.43 0.42 0.37 0.33 0.32 0.29 0.25 0.22 0.18 0.14 0.11 0.09 0.09 0.09 0.09 0.10
0.13 0.15 0.17 0.18 0.18 0.18 0.17 0.17 0.17 0.16 0.17 0.17 0.18 0.21 0.24 0.26 0.31 0.35 0.41 0.48 0.56 0.64 0.70 0.64 0.57 0.56 0.54 0.49 0.43 0.33 0.26 0.22 0.18 0.15 0.13 0.10 0.09 0.07 0.06 0.07 0.07 0.09 0.11
0.13 0.15 0.15 0.14 0.13 0.13 0.12 0.11 0.11 0.11 0.12 0.13 0.15 0.17 0.20 0.22 0.25 0.30 0.36 0.44 0.52 0.58 0.61 0.59 0.51 0.45 0.39 0.31 0.25 0.19 0.14 0.10 0.08 0.07 0.06 0.05 0.04 0.04 0.04 0.05 0.07 0.09 0.10
0.12 0.11 0.10 0.10 0.09 0.09 0.08 0.08 0.09 0.10 0.11 0.12 0.14 0.17 0.19 0.22 0.27 0.31 0.37 0.43 0.47 0.46 0.44 0.40 0.33 0.27 0.21 0.17 0.13 0.09 0.06 0.04 0.02 0.02 0.02 0.02 0.01 0.02 0.03 0.04 0.05 0.05 0.06
0.09 0.07 0.06 0.06 0.06 0.07 0.07 0.08 0.09 0.10 0.12 0.15 0.18 0.23 0.27 0.33 0.39 0.43 0.45 0.44 0.40 0.34 0.29 0.25 0.21 0.17 0.13 0.09 0.06 0.04 0.02 0.01 0.01 0.01 0.00 0.00 0.00 0.01 0.01 0.01 0.01 0.01 0.02
0.05 0.05 0.05 0.06 0.06 0.08 0.09 0.10 0.11 0.13 0.17 0.21 0.26 0.32 0.38 0.45 0.47 0.42 0.35 0.29 0.23 0.20 0.20 0.21 0.17 0.11 0.07 0.04 0.03 0.02 0.02 0.01 0.00 0.00 0.00 0.00 0.00 0.00 0.00 0.00 0.00 0.00 0.01
0.08 0.08 0.09 0.10 0.11 0.12 0.18 0.17 0.15 0.17 0.24 0.30 0.34 0.36 0.37 0.37 0.32 0.27 0.22 0.17 0.16 0.19 0.19 0.15 0.10 0.06 0.02 0.01 0.01 0.02 0.03 0.05 0.03 0.00 0.00 0.00 0.00 0.00 0.00 0.00 0.00 0.00 0.01
0.17 0.17 0.16 0.16 0.18 0.23 0.30 0.29 0.31 0.30 0.32 0.34 0.33 0.30 0.25 0.21 0.17 0.13 0.12 0.12 0.13 0.12 0.09 0.06 0.04 0.01 0.01 0.01 0.04 0.07 0.07 0.07 0.05 0.00 0.01 0.00 0.00 0.00 0.00 0.00 0.00 0.00 0.01
0.36 0.35 0.35 0.34 0.36 0.41 0.44 0.39 0.36 0.31 0.29 0.27 0.23 0.18 0.14 0.10 0.08 0.07 0.08 0.08 0.05 0.02 0.01 0.01 0.01 0.01 0.02 0.03 0.05 0.10 0.08 0.05 0.02 0.00 0.00 0.00 0.00 0.00 0.00 0.00 0.00 0.00 0.00
0.62 0.62 0.61 0.59 0.56 0.53 0.46 0.34 0.26 0.21 0.17 0.13 0.09 0.06 0.05 0.03 0.03 0.05 0.06 0.04 0.01 0.00 0.00 0.00 0.02 0.02 0.02 0.02 0.02 0.02 0.03 0.06 0.05 0.00 0.00 0.00 0.00 0.00 0.00 0.00 0.00 0.00 0.00
0.60 0.57 0.55 0.50 0.44 0.36 0.27 0.18 0.11 0.08 0.05 0.03 0.01 0.01 0.01 0.01 0.03 0.06 0.05 0.03 0.01 0.00 0.01 0.01 0.00 0.00 0.00 0.00 0.00 0.00 0.03 0.14 0.15 0.08 0.00 0.02 0.03 0.05 0.09 0.01 0.00 0.00 0.00

GEFSMA_prec_meanprecacc_048.txt.gz
Total_Precipitation_Accumulation
0.00 0.00 0.01 0.01 0.01 0.00 0.00 0.00 0.00 0.00 0.00 0.00 0.00 0.00 0.00 0.00 0.00 0.00 0.00 0.00 0.00 0.00 0.01 0.00 0.00 0.00 0.00 0.00 0.00 0.00 0.00 0.00 0.00 0.00 0.00 0.00 0.00 0.00 0.00 0.00 0.00 0.01 0.01
0.00 0.00 0.00 0.01 0.01 0.00 0.00 0.00 0.00 0.00 0.00 0.00 0.00 0.00 0.00 0.00 0.00 0.00 0.00 0.00 0.00 0.00 0.00 0.00 0.00 0.00 0.00 0.00 0.00 0.00 0.00 0.00 0.00 0.00 0.00 0.00 0.00 0.00 0.00 0.00 0.00 0.00 0.00
0.00 0.00 0.00 0.00 0.00 0.00 0.00 0.00 0.00 0.00 0.00 0.00 0.00 0.00 0.00 0.00 0.00 0.00 0.00 0.00 0.00 0.00 0.00 0.00 0.00 0.00 0.00 0.00 0.00 0.00 0.00 0.00 0.00 0.00 0.00 0.00 0.00 0.00 0.00 0.00 0.00 0.00 0.00
0.01 0.00 0.00 0.00 0.00 0.00 0.01 0.01 0.01 0.01 0.01 0.01 0.01 0.00 0.01 0.00 0.00 0.00 0.00 0.00 0.00 0.00 0.00 0.00 0.00 0.00 0.00 0.00 0.00 0.00 0.00 0.00 0.00 0.00 0.00 0.00 0.00 0.00 0.00 0.00 0.00 0.00 0.00
0.04 0.02 0.01 0.01 0.01 0.01 0.02 0.02 0.02 0.02 0.02 0.02 0.02 0.02 0.02 0.01 0.01 0.00 0.00 0.00 0.00 0.00 0.00 0.00 0.00 0.00 0.00 0.00 0.00 0.00 0.00 0.00 0.00 0.00 0.00 0.00 0.00 0.00 0.00 0.00 0.00 0.00 0.00
0.12 0.09 0.05 0.04 0.04 0.03 0.03 0.04 0.06 0.06 0.05 0.05 0.04 0.02 0.02 0.01 0.01 0.00 0.00 0.00 0.00 0.00 0.00 0.00 0.00 0.00 0.00 0.00 0.00 0.00 0.00 0.00 0.00 0.00 0.00 0.00 0.00 0.00 0.00 0.00 0.00 0.01 0.01
0.18 0.16 0.10 0.08 0.08 0.07 0.07 0.08 0.10 0.09 0.08 0.09 0.06 0.03 0.01 0.01 0.01 0.01 0.01 0.01 0.01 0.01 0.01 0.01 0.01 0.01 0.01 0.00 0.00 0.00 0.00 0.00 0.00 0.00 0.00 0.00 0.00 0.00 0.00 0.01 0.01 0.01 0.02
0.21 0.18 0.15 0.14 0.16 0.14 0.12 0.11 0.11 0.10 0.10 0.12 0.09 0.06 0.02 0.00 0.00 0.01 0.01 0.01 0.01 0.02 0.02 0.02 0.02 0.02 0.01 0.01 0.01 0.01 0.01 0.01 0.01 0.01 0.00 0.00 0.00 0.00 0.01 0.01 0.02 0.03 0.04
0.25 0.23 0.23 0.23 0.22 0.20 0.16 0.16 0.16 0.15 0.14 0.14 0.13 0.11 0.05 0.01 0.01 0.01 0.01 0.02 0.02 0.02 0.02 0.03 0.03 0.03 0.02 0.02 0.02 0.02 0.02 0.01 0.01 0.02 0.01 0.01 0.01 0.01 0.02 0.03 0.05 0.07 0.08
0.29 0.29 0.29 0.29 0.27 0.24 0.21 0.20 0.22 0.21 0.18 0.14 0.13 0.11 0.09 0.05 0.04 0.02 0.02 0.03 0.03 0.02 0.03 0.04 0.04 0.04 0.03 0.03 0.03 0.04 0.04 0.03 0.02 0.02 0.02 0.02 0.02 0.03 0.05 0.07 0.10 0.12 0.13
0.24 0.27 0.29 0.30 0.27 0.27 0.26 0.26 0.25 0.26 0.22 0.19 0.16 0.17 0.16 0.10 0.06 0.06 0.05 0.04 0.05 0.05 0.05 0.05 0.05 0.05 0.06 0.06 0.07 0.08 0.09 0.08 0.07 0.05 0.04 0.04 0.06 0.08 0.10 0.13 0.15 0.15 0.15
0.17 0.20 0.24 0.26 0.28 0.30 0.30 0.32 0.35 0.35 0.32 0.26 0.21 0.20 0.21 0.17 0.12 0.11 0.11 0.09 0.09 0.08 0.07 0.07 0.07 0.08 0.08 0.10 0.12 0.16 0.17 0.17 0.16 0.14 0.13 0.13 0.15 0.18 0.19 0.19 0.19 0.19 0.18
0.12 0.15 0.21 0.25 0.30 0.35 0.41 0.43 0.40 0.38 0.39 0.34 0.29 0.24 0.23 0.22 0.21 0.20 0.19 0.15 0.12 0.11 0.10 0.11 0.12 0.13 0.15 0.18 0.22 0.30 0.32 0.32 0.31 0.28 0.26 0.27 0.28 0.27 0.24 0.24 0.25 0.26 0.25
0.17 0.23 0.26 0.29 0.32 0.35 0.37 0.39 0.41 0.40 0.40 0.38 0.36 0.31 0.26 0.24 0.25 0.27 0.30 0.32 0.31 0.27 0.24 0.24 0.24 0.27 0.30 0.34 0.41 0.47 0.45 0.48 0.47 0.45 0.45 0.45 0.41 0.33 0.27 0.26 0.27 0.27 0.27
0.18 0.21 0.24 0.26 0.27 0.29 0.32 0.34 0.36 0.36 0.36 0.35 0.34 0.34 0.31 0.30 0.32 0.36 0.42 0.51 0.61 0.61 0.52 0.45 0.45 0.46 0.49 0.51 0.57 0.55 0.51 0.57 0.57 0.54 0.51 0.47 0.41 0.33 0.28 0.26 0.24 0.22 0.21
0.14 0.16 0.19 0.21 0.22 0.23 0.24 0.25 0.26 0.26 0.27 0.26 0.27 0.30 0.33 0.35 0.38 0.42 0.48 0.54 0.62 0.70 0.69 0.56 0.51 0.54 0.59 0.61 0.64 0.56 0.52 0.54 0.51 0.47 0.44 0.39 0.33 0.26 0.22 0.19 0.17 0.16 0.16
0.13 0.15 0.17 0.18 0.18 0.18 0.17 0.17 0.17 0.16 0.17 0.17 0.18 0.21 0.24 0.27 0.31 0.37 0.42 0.50 0.59 0.70 0.78 0.72 0.65 0.65 0.65 0.61 0.56 0.47 0.40 0.37 0.33 0.33 0.31 0.27 0.22 0.18 0.15 0.13 0.12 0.13 0.14
0.13 0.15 0.15 0.14 0.13 0.13 0.12 0.11 0.11 0.11 0.12 0.13 0.15 0.17 0.20 0.22 0.26 0.30 0.37 0.46 0.55 0.62 0.67 0.65 0.58 0.53 0.46 0.39 0.33 0.27 0.21 0.18 0.16 0.17 0.16 0.14 0.12 0.10 0.09 0.08 0.09 0.10 0.11
0.12 0.11 0.10 0.10 0.09 0.09 0.08 0.08 0.09 0.10 0.11 0.12 0.14 0.17 0.20 0.23 0.27 0.31 0.38 0.44 0.48 0.48 0.47 0.43 0.38 0.32 0.27 0.22 0.18 0.13 0.10 0.08 0.06 0.06 0.06 0.05 0.04 0.04 0.04 0.05 0.06 0.06 0.06
0.09 0.07 0.06 0.06 0.06 0.07 0.07 0.08 0.09 0.10 0.12 0.15 0.18 0.23 0.27 0.33 0.39 0.44 0.45 0.45 0.41 0.35 0.30 0.26 0.24 0.20 0.16 0.11 0.09 0.07 0.05 0.03 0.02 0.01 0.01 0.01 0.01 0.01 0.01 0.01 0.01 0.01 0.02
0.05 0.05 0.05 0.06 0.06 0.08 0.09 0.10 0.11 0.13 0.17 0.21 0.26 0.32 0.38 0.45 0.47 0.42 0.35 0.29 0.24 0.20 0.20 0.21 0.18 0.13 0.08 0.06 0.04 0.03 0.03 0.02 0.01 0.01 0.00 0.00 0.00 0.00 0.00 0.00 0.00 0.00 0.01
0.08 0.08 0.09 0.10 0.11 0.12 0.19 0.18 0.15 0.17 0.24 0.30 0.34 0.36 0.37 0.37 0.32 0.27 0.22 0.17 0.16 0.19 0.19 0.15 0.10 0.06 0.03 0.02 0.02 0.03 0.04 0.05 0.04 0.00 0.00 0.00 0.00 0.00 0.00 0.00 0.00 0.00 0.01
0.17 0.17 0.16 0.16 0.18 0.23 0.30 0.29 0.31 0.30 0.32 0.34 0.33 0.30 0.25 0.21 0.17 0.13 0.12 0.12 0.13 0.12 0.09 0.06 0.04 0.02 0.01 0.01 0.04 0.07 0.07 0.08 0.05 0.00 0.01 0.00 0.00 0.00 0.00 0.00 0.00 0.00 0.01
0.36 0.35 0.35 0.34 0.36 0.41 0.44 0.39 0.36 0.31 0.29 0.27 0.23 0.18 0.14 0.10 0.08 0.07 0.08 0.08 0.05 0.02 0.01 0.01 0.01 0.01 0.02 0.03 0.05 0.10 0.08 0.05 0.02 0.00 0.00 0.00 0.00 0.00 0.00 0.00 0.00 0.00 0.00
0.62 0.62 0.61 0.59 0.56 0.53 0.46 0.34 0.26 0.21 0.17 0.13 0.09 0.06 0.05 0.03 0.03 0.05 0.06 0.04 0.01 0.00 0.00 0.00 0.02 0.02 0.02 0.02 0.02 0.02 0.03 0.06 0.05 0.00 0.00 0.00 0.00 0.00 0.00 0.00 0.00 0.00 0.00
0.60 0.57 0.55 0.50 0.44 0.36 0.27 0.18 0.11 0.08 0.05 0.03 0.01 0.01 0.01 0.01 0.03 0.06 0.05 0.03 0.01 0.00 0.01 0.01 0.00 0.00 0.00 0.00 0.00 0.00 0.03 0.14 0.15 0.08 0.00 0.02 0.03 0.05 0.09 0.01 0.00 0.00 0.00

GEFSMA_prec_meanprecacc_054.txt.gz
Total_Precipitation_Accumulation
0.00 0.00 0.01 0.01 0.01 0.00 0.00 0.00 0.00 0.00 0.00 0.00 0.00 0.00 0.00 0.00 0.00 0.00 0.00 0.00 0.00 0.01 0.01 0.01 0.01 0.01 0.00 0.00 0.00 0.00 0.00 0.00 0.00 0.00 0.00 0.00 0.00 0.00 0.00 0.00 0.00 0.01 0.01
0.00 0.00 0.00 0.01 0.01 0.00 0.00 0.00 0.00 0.00 0.00 0.00 0.00 0.00 0.00 0.00 0.00 0.00 0.00 0.00 0.00 0.00 0.01 0.01 0.01 0.01 0.01 0.00 0.00 0.00 0.00 0.00 0.00 0.00 0.00 0.00 0.00 0.00 0.00 0.00 0.00 0.00 0.00
0.00 0.00 0.00 0.00 0.00 0.00 0.00 0.00 0.00 0.00 0.00 0.00 0.00 0.00 0.00 0.00 0.00 0.00 0.00 0.00 0.00 0.00 0.00 0.01 0.01 0.02 0.01 0.01 0.01 0.00 0.00 0.00 0.00 0.00 0.00 0.00 0.00 0.00 0.00 0.00 0.00 0.00 0.00
0.01 0.00 0.00 0.00 0.00 0.00 0.01 0.01 0.01 0.01 0.01 0.01 0.01 0.01 0.01 0.01 0.00 0.00 0.00 0.00 0.00 0.00 0.00 0.01 0.01 0.02 0.02 0.01 0.01 0.01 0.01 0.00 0.00 0.00 0.00 0.00 0.00 0.00 0.00 0.00 0.00 0.00 0.00
0.05 0.03 0.01 0.01 0.01 0.01 0.02 0.03 0.03 0.03 0.02 0.02 0.02 0.02 0.02 0.02 0.01 0.01 0.01 0.01 0.01 0.01 0.01 0.01 0.01 0.01 0.01 0.01 0.01 0.02 0.02 0.01 0.01 0.00 0.00 0.00 0.00 0.00 0.00 0.00 0.00 0.00 0.00
0.12 0.09 0.05 0.05 0.05 0.04 0.03 0.04 0.06 0.07 0.05 0.05 0.05 0.03 0.02 0.02 0.01 0.01 0.01 0.01 0.01 0.01 0.02 0.01 0.01 0.01 0.01 0.01 0.02 0.02 0.03 0.03 0.02 0.01 0.01 0.00 0.00 0.00 0.00 0.00 0.00 0.01 0.01
0.19 0.17 0.11 0.09 0.08 0.07 0.07 0.09 0.11 0.10 0.09 0.10 0.07 0.03 0.01 0.01 0.01 0.01 0.01 0.01 0.01 0.02 0.02 0.02 0.02 0.01 0.01 0.01 0.01 0.01 0.03 0.05 0.05 0.04 0.02 0.01 0.01 0.01 0.01 0.01 0.01 0.02 0.02
0.22 0.19 0.15 0.15 0.16 0.15 0.13 0.12 0.12 0.11 0.11 0.13 0.10 0.07 0.03 0.00 0.00 0.01 0.01 0.01 0.02 0.02 0.02 0.03 0.03 0.02 0.02 0.01 0.01 0.02 0.03 0.05 0.08 0.10 0.08 0.04 0.03 0.02 0.02 0.02 0.03 0.04 0.05
0.26 0.23 0.23 0.24 0.23 0.20 0.17 0.17 0.17 0.16 0.15 0.15 0.14 0.13 0.07 0.02 0.01 0.01 0.01 0.02 0.02 0.02 0.02 0.03 0.03 0.03 0.03 0.02 0.02 0.03 0.04 0.05 0.08 0.13 0.16 0.14 0.08 0.06 0.05 0.06 0.07 0.09 0.10
0.29 0.29 0.29 0.29 0.28 0.25 0.21 0.21 0.22 0.22 0.19 0.15 0.14 0.11 0.10 0.07 0.05 0.03 0.02 0.03 0.03 0.02 0.03 0.04 0.04 0.04 0.04 0.04 0.05 0.05 0.06 0.07 0.09 0.13 0.19 0.24 0.22 0.17 0.15 0.15 0.16 0.18 0.18
0.24 0.27 0.29 0.30 0.27 0.27 0.27 0.26 0.26 0.26 0.23 0.19 0.17 0.17 0.16 0.10 0.06 0.07 0.06 0.04 0.05 0.05 0.06 0.05 0.05 0.05 0.06 0.07 0.08 0.10 0.12 0.12 0.15 0.18 0.24 0.31 0.36 0.37 0.35 0.32 0.30 0.28 0.26
0.17 0.20 0.24 0.26 0.28 0.30 0.31 0.32 0.35 0.35 0.33 0.27 0.22 0.21 0.22 0.18 0.12 0.12 0.12 0.10 0.09 0.08 0.07 0.07 0.07 0.08 0.09 0.11 0.13 0.19 0.21 0.23 0.25 0.28 0.34 0.41 0.48 0.53 0.54 0.51 0.49 0.43 0.38
0.12 0.15 0.21 0.25 0.30 0.35 0.41 0.43 0.41 0.39 0.39 0.35 0.30 0.25 0.25 0.23 0.22 0.21 0.20 0.16 0.13 0.11 0.10 0.11 0.12 0.13 0.15 0.18 0.24 0.32 0.36 0.38 0.40 0.42 0.49 0.58 0.63 0.61 0.55 0.54 0.58 0.59 0.55
0.17 0.23 0.26 0.29 0.32 0.35 0.37 0.39 0.41 0.40 0.40 0.39 0.36 0.31 0.27 0.25 0.26 0.28 0.30 0.33 0.32 0.27 0.24 0.24 0.24 0.27 0.30 0.35 0.42 0.50 0.49 0.54 0.56 0.61 0.70 0.80 0.75 0.63 0.53 0.51 0.51 0.52 0.50
0.18 0.21 0.24 0.26 0.27 0.29 0.32 0.34 0.36 0.36 0.36 0.35 0.34 0.34 0.31 0.30 0.32 0.36 0.43 0.51 0.61 0.62 0.53 0.45 0.45 0.47 0.49 0.52 0.58 0.57 0.54 0.64 0.68 0.70 0.72 0.71 0.63 0.53 0.48 0.46 0.43 0.41 0.38
0.14 0.16 0.19 0.21 0.22 0.23 0.24 0.26 0.26 0.27 0.27 0.26 0.27 0.30 0.33 0.35 0.38 0.42 0.48 0.54 0.62 0.70 0.69 0.57 0.51 0.54 0.60 0.62 0.65 0.58 0.55 0.61 0.61 0.60 0.60 0.56 0.49 0.43 0.39 0.35 0.31 0.29 0.27
0.13 0.15 0.17 0.18 0.18 0.18 0.17 0.17 0.17 0.16 0.17 0.17 0.18 0.21 0.24 0.27 0.31 0.37 0.42 0.50 0.59 0.70 0.78 0.72 0.66 0.65 0.66 0.62 0.58 0.49 0.43 0.41 0.40 0.43 0.41 0.37 0.33 0.29 0.25 0.23 0.21 0.21 0.21
0.13 0.15 0.15 0.14 0.13 0.13 0.12 0.11 0.11 0.11 0.12 0.13 0.15 0.17 0.20 0.22 0.26 0.30 0.37 0.46 0.55 0.62 0.67 0.65 0.58 0.53 0.47 0.40 0.34 0.29 0.24 0.21 0.20 0.23 0.22 0.20 0.18 0.16 0.14 0.13 0.13 0.14 0.14
0.12 0.11 0.10 0.10 0.09 0.09 0.08 0.08 0.09 0.10 0.11 0.12 0.14 0.17 0.20 0.23 0.27 0.31 0.38 0.44 0.48 0.48 0.47 0.43 0.38 0.32 0.27 0.22 0.19 0.14 0.11 0.09 0.07 0.08 0.08 0.07 0.07 0.06 0.06 0.07 0.07 0.07 0.07
0.09 0.07 0.06 0.06 0.06 0.07 0.07 0.08 0.09 0.10 0.12 0.15 0.18 0.23 0.27 0.33 0.39 0.44 0.45 0.45 0.41 0.35 0.30 0.26 0.24 0.20 0.16 0.12 0.09 0.07 0.05 0.04 0.03 0.02 0.02 0.02 0.02 0.02 0.02 0.01 0.01 0.01 0.02
0.05 0.05 0.05 0.06 0.06 0.08 0.09 0.10 0.11 0.13 0.17 0.21 0.26 0.32 0.38 0.45 0.47 0.42 0.35 0.29 0.24 0.20 0.20 0.21 0.18 0.13 0.08 0.06 0.05 0.03 0.03 0.03 0.01 0.01 0.00 0.00 0.00 0.00 0.00 0.00 0.00 0.00 0.01
0.08 0.08 0.09 0.10 0.11 0.12 0.19 0.18 0.15 0.17 0.24 0.30 0.34 0.36 0.37 0.37 0.32 0.27 0.22 0.18 0.16 0.19 0.19 0.15 0.10 0.06 0.03 0.02 0.02 0.03 0.04 0.05 0.04 0.00 0.00 0.00 0.00 0.00 0.00 0.00 0.00 0.00 0.01
0.17 0.17 0.16 0.16 0.18 0.24 0.30 0.29 0.31 0.30 0.32 0.34 0.33 0.30 0.25 0.21 0.17 0.13 0.12 0.12 0.13 0.12 0.09 0.06 0.04 0.02 0.01 0.01 0.04 0.07 0.07 0.08 0.05 0.01 0.01 0.00 0.00 0.00 0.00 0.00 0.00 0.00 0.01
0.36 0.36 0.35 0.34 0.36 0.42 0.44 0.40 0.36 0.31 0.29 0.27 0.23 0.18 0.14 0.10 0.08 0.07 0.08 0.08 0.05 0.02 0.01 0.01 0.01 0.01 0.02 0.03 0.05 0.10 0.08 0.05 0.02 0.00 0.00 0.00 0.00 0.00 0.00 0.00 0.00 0.00 0.00
0.62 0.62 0.61 0.59 0.56 0.53 0.46 0.34 0.26 0.21 0.17 0.13 0.09 0.06 0.05 0.03 0.03 0.05 0.06 0.04 0.01 0.00 0.00 0.00 0.02 0.02 0.02 0.02 0.02 0.02 0.03 0.06 0.05 0.00 0.00 0.00 0.00 0.00 0.00 0.00 0.00 0.00 0.00
0.60 0.57 0.55 0.50 0.44 0.36 0.27 0.18 0.11 0.08 0.05 0.03 0.01 0.01 0.01 0.01 0.03 0.06 0.05 0.03 0.01 0.00 0.01 0.01 0.00 0.00 0.00 0.00 0.00 0.00 0.03 0.14 0.15 0.08 0.00 0.02 0.03 0.05 0.09 0.01 0.00 0.00 0.00

GEFSMA_prec_meanprecacc_060.txt.gz
Total_Precipitation_Accumulation
0.00 0.00 0.01 0.01 0.01 0.00 0.00 0.00 0.00 0.00 0.00 0.00 0.00 0.00 0.00 0.00 0.00 0.00 0.00 0.00 0.00 0.01 0.01 0.01 0.01 0.01 0.01 0.01 0.00 0.00 0.00 0.00 0.00 0.00 0.00 0.00 0.00 0.00 0.00 0.00 0.00 0.01 0.01
0.00 0.00 0.00 0.01 0.01 0.00 0.00 0.00 0.00 0.00 0.00 0.00 0.00 0.00 0.00 0.00 0.00 0.00 0.00 0.00 0.00 0.00 0.01 0.02 0.02 0.02 0.02 0.02 0.02 0.01 0.01 0.00 0.00 0.00 0.00 0.00 0.00 0.00 0.00 0.00 0.00 0.00 0.00
0.00 0.00 0.00 0.00 0.00 0.01 0.00 0.00 0.00 0.00 0.00 0.00 0.00 0.00 0.00 0.00 0.00 0.00 0.00 0.00 0.00 0.00 0.00 0.01 0.02 0.03 0.04 0.04 0.05 0.04 0.02 0.01 0.01 0.00 0.00 0.00 0.00 0.00 0.00 0.00 0.00 0.00 0.00
0.01 0.00 0.00 0.01 0.01 0.01 0.01 0.01 0.01 0.02 0.01 0.01 0.01 0.01 0.01 0.01 0.01 0.00 0.00 0.00 0.00 0.00 0.00 0.01 0.01 0.03 0.04 0.04 0.05 0.07 0.06 0.04 0.01 0.01 0.00 0.00 0.00 0.00 0.00 0.00 0.00 0.00 0.00
0.05 0.03 0.01 0.02 0.02 0.02 0.03 0.04 0.04 0.04 0.04 0.04 0.04 0.03 0.03 0.02 0.01 0.01 0.01 0.01 0.01 0.01 0.01 0.01 0.01 0.01 0.02 0.02 0.04 0.07 0.10 0.09 0.05 0.03 0.01 0.01 0.00 0.00 0.00 0.00 0.00 0.00 0.00
0.12 0.10 0.05 0.06 0.06 0.05 0.05 0.06 0.08 0.08 0.07 0.07 0.06 0.03 0.02 0.02 0.01 0.01 0.01 0.01 0.01 0.01 0.02 0.01 0.01 0.01 0.01 0.02 0.02 0.04 0.08 0.12 0.11 0.08 0.04 0.02 0.01 0.01 0.01 0.01 0.01 0.01 0.01
0.19 0.17 0.11 0.09 0.09 0.08 0.09 0.12 0.14 0.12 0.11 0.12 0.08 0.04 0.01 0.01 0.01 0.01 0.01 0.01 0.01 0.02 0.02 0.02 0.02 0.01 0.01 0.01 0.02 0.02 0.05 0.10 0.15 0.16 0.12 0.09 0.06 0.04 0.02 0.02 0.02 0.02 0.03
0.22 0.19 0.16 0.16 0.18 0.17 0.14 0.14 0.15 0.13 0.13 0.15 0.12 0.09 0.03 0.00 0.00 0.01 0.01 0.01 0.02 0.02 0.02 0.03 0.03 0.02 0.02 0.01 0.01 0.02 0.03 0.07 0.14 0.20 0.22 0.18 0.14 0.10 0.07 0.06 0.05 0.06 0.06
0.26 0.24 0.24 0.25 0.23 0.21 0.17 0.18 0.20 0.18 0.16 0.17 0.16 0.15 0.09 0.03 0.02 0.01 0.01 0.02 0.02 0.02 0.02 0.03 0.03 0.03 0.03 0.02 0.02 0.03 0.04 0.05 0.09 0.17 0.25 0.28 0.24 0.20 0.17 0.15 0.13 0.12 0.13
0.30 0.30 0.30 0.30 0.28 0.26 0.22 0.22 0.23 0.23 0.21 0.17 0.15 0.12 0.12 0.09 0.08 0.04 0.02 0.03 0.03 0.02 0.03 0.04 0.04 0.04 0.04 0.04 0.05 0.05 0.06 0.07 0.09 0.15 0.24 0.35 0.39 0.37 0.36 0.34 0.32 0.31 0.27
0.24 0.27 0.29 0.30 0.28 0.27 0.27 0.26 0.26 0.27 0.24 0.21 0.19 0.19 0.18 0.12 0.08 0.09 0.07 0.05 0.05 0.06 0.06 0.05 0.05 0.05 0.06 0.07 0.08 0.10 0.12 0.12 0.15 0.20 0.27 0.38 0.51 0.58 0.59 0.57 0.53 0.50 0.43
0.17 0.20 0.24 0.26 0.28 0.30 0.31 0.32 0.35 0.36 0.33 0.28 0.23 0.23 0.24 0.20 0.13 0.13 0.14 0.11 0.10 0.08 0.07 0.07 0.07 0.08 0.09 0.11 0.13 0.19 0.21 0.23 0.25 0.29 0.36 0.47 0.61 0.72 0.76 0.76 0.73 0.69 0.61
0.12 0.15 0.21 0.25 0.30 0.35 0.41 0.43 0.41 0.39 0.40 0.36 0.31 0.26 0.26 0.24 0.23 0.22 0.22 0.17 0.14 0.11 0.11 0.11 0.12 0.13 0.15 0.18 0.24 0.32 0.36 0.38 0.40 0.43 0.51 0.63 0.71 0.74 0.73 0.74 0.79 0.83 0.80
0.17 0.23 0.26 0.29 0.32 0.35 0.37 0.39 0.41 0.40 0.41 0.39 0.36 0.32 0.27 0.25 0.26 0.28 0.31 0.34 0.33 0.28 0.24 0.24 0.24 0.27 0.30 0.35 0.42 0.50 0.49 0.55 0.57 0.62 0.72 0.86 0.83 0.74 0.66 0.65 0.68 0.73 0.71
0.18 0.21 0.24 0.26 0.27 0.29 0.32 0.34 0.36 0.36 0.36 0.35 0.34 0.34 0.31 0.30 0.32 0.36 0.43 0.52 0.62 0.63 0.53 0.45 0.45 0.47 0.49 0.52 0.58 0.57 0.54 0.64 0.68 0.71 0.76 0.76 0.68 0.60 0.56 0.56 0.56 0.56 0.53
0.14 0.16 0.19 0.21 0.22 0.23 0.24 0.26 0.26 0.27 0.27 0.26 0.27 0.30 0.33 0.35 0.39 0.42 0.48 0.54 0.62 0.71 0.69 0.57 0.52 0.54 0.60 0.62 0.65 0.58 0.55 0.62 0.61 0.62 0.62 0.59 0.53 0.48 0.44 0.42 0.39 0.38 0.36
0.13 0.15 0.17 0.18 0.18 0.18 0.17 0.17 0.17 0.16 0.17 0.17 0.18 0.21 0.24 0.27 0.31 0.37 0.42 0.50 0.59 0.70 0.78 0.72 0.66 0.65 0.66 0.62 0.58 0.49 0.43 0.41 0.41 0.44 0.42 0.39 0.35 0.33 0.30 0.28 0.27 0.26 0.26
0.13 0.15 0.15 0.14 0.13 0.13 0.12 0.11 0.11 0.11 0.12 0.13 0.15 0.17 0.20 0.22 0.26 0.30 0.37 0.46 0.55 0.62 0.67 0.65 0.58 0.53 0.47 0.40 0.34 0.29 0.24 0.21 0.20 0.23 0.22 0.21 0.20 0.18 0.16 0.15 0.16 0.16 0.17
0.12 0.11 0.10 0.10 0.09 0.09 0.08 0.08 0.09 0.10 0.11 0.12 0.14 0.17 0.20 0.23 0.27 0.31 0.38 0.44 0.48 0.48 0.47 0.43 0.38 0.32 0.27 0.22 0.19 0.14 0.11 0.09 0.07 0.08 0.08 0.08 0.07 0.06 0.07 0.07 0.07 0.07 0.07
0.09 0.07 0.06 0.06 0.06 0.07 0.07 0.08 0.09 0.10 0.12 0.15 0.18 0.23 0.27 0.33 0.39 0.44 0.45 0.45 0.41 0.35 0.30 0.26 0.24 0.20 0.16 0.12 0.09 0.07 0.05 0.04 0.03 0.02 0.02 0.02 0.02 0.02 0.02 0.01 0.01 0.02 0.02
0.05 0.05 0.05 0.06 0.06 0.08 0.09 0.10 0.11 0.13 0.17 0.21 0.26 0.32 0.38 0.45 0.47 0.42 0.35 0.29 0.24 0.20 0.20 0.21 0.18 0.13 0.08 0.06 0.05 0.03 0.03 0.03 0.01 0.01 0.00 0.00 0.00 0.00 0.00 0.00 0.00 0.00 0.01
0.08 0.08 0.09 0.10 0.11 0.12 0.19 0.18 0.15 0.17 0.24 0.30 0.34 0.36 0.37 0.37 0.32 0.27 0.22 0.18 0.16 0.19 0.19 0.15 0.10 0.06 0.03 0.02 0.02 0.03 0.04 0.05 0.04 0.00 0.00 0.00 0.00 0.00 0.00 0.00 0.00 0.00 0.01
0.17 0.17 0.16 0.16 0.18 0.24 0.31 0.29 0.31 0.30 0.32 0.34 0.33 0.30 0.25 0.21 0.17 0.13 0.12 0.12 0.13 0.12 0.09 0.06 0.04 0.02 0.01 0.01 0.04 0.07 0.07 0.08 0.05 0.01 0.01 0.00 0.00 0.00 0.00 0.00 0.00 0.00 0.01
0.36 0.36 0.35 0.34 0.36 0.42 0.44 0.40 0.36 0.31 0.29 0.27 0.23 0.18 0.14 0.10 0.08 0.07 0.08 0.08 0.05 0.02 0.01 0.01 0.01 0.01 0.02 0.03 0.05 0.10 0.08 0.05 0.02 0.00 0.00 0.00 0.00 0.00 0.00 0.00 0.00 0.00 0.00
0.62 0.62 0.61 0.59 0.56 0.53 0.46 0.34 0.26 0.21 0.17 0.13 0.09 0.06 0.05 0.03 0.03 0.05 0.06 0.04 0.01 0.00 0.00 0.00 0.02 0.02 0.02 0.02 0.02 0.02 0.03 0.06 0.05 0.00 0.00 0.00 0.00 0.00 0.00 0.00 0.00 0.00 0.00
0.60 0.57 0.55 0.50 0.44 0.36 0.27 0.18 0.11 0.08 0.05 0.03 0.01 0.01 0.01 0.01 0.03 0.06 0.05 0.03 0.01 0.00 0.01 0.01 0.00 0.00 0.00 0.00 0.00 0.00 0.03 0.14 0.15 0.08 0.00 0.02 0.03 0.05 0.09 0.01 0.00 0.00 0.00

GEFSMA_prec_meanprecacc_066.txt.gz
Total_Precipitation_Accumulation
0.00 0.00 0.01 0.01 0.01 0.00 0.00 0.00 0.00 0.00 0.00 0.00 0.00 0.00 0.00 0.00 0.00 0.00 0.00 0.00 0.00 0.01 0.01 0.01 0.02 0.03 0.03 0.04 0.03 0.02 0.01 0.01 0.01 0.00 0.00 0.00 0.00 0.00 0.00 0.00 0.00 0.01 0.01
0.00 0.00 0.00 0.01 0.01 0.00 0.00 0.00 0.00 0.00 0.00 0.00 0.00 0.00 0.00 0.00 0.00 0.00 0.00 0.00 0.00 0.00 0.01 0.02 0.03 0.04 0.05 0.06 0.07 0.06 0.04 0.02 0.02 0.01 0.00 0.00 0.00 0.00 0.00 0.00 0.00 0.00 0.00
0.00 0.00 0.00 0.00 0.00 0.01 0.00 0.00 0.00 0.00 0.00 0.00 0.00 0.00 0.00 0.00 0.00 0.00 0.00 0.00 0.00 0.00 0.00 0.02 0.03 0.05 0.07 0.08 0.10 0.11 0.10 0.06 0.03 0.01 0.01 0.00 0.00 0.00 0.00 0.00 0.00 0.00 0.00
0.01 0.00 0.00 0.01 0.01 0.01 0.01 0.02 0.02 0.02 0.01 0.01 0.01 0.01 0.01 0.01 0.01 0.00 0.00 0.00 0.00 0.00 0.00 0.01 0.02 0.04 0.05 0.07 0.10 0.14 0.15 0.13 0.07 0.04 0.02 0.02 0.01 0.00 0.00 0.00 0.00 0.00 0.00
0.05 0.03 0.02 0.02 0.02 0.02 0.03 0.04 0.04 0.04 0.04 0.04 0.04 0.03 0.03 0.02 0.01 0.01 0.01 0.01 0.01 0.01 0.01 0.01 0.01 0.01 0.02 0.03 0.06 0.11 0.17 0.19 0.14 0.09 0.06 0.04 0.03 0.01 0.01 0.00 0.00 0.00 0.00
0.12 0.10 0.06 0.06 0.06 0.05 0.05 0.06 0.08 0.09 0.07 0.07 0.06 0.03 0.02 0.02 0.01 0.01 0.01 0.01 0.01 0.02 0.02 0.01 0.01 0.01 0.01 0.02 0.03 0.05 0.11 0.17 0.19 0.16 0.12 0.09 0.07 0.05 0.03 0.02 0.01 0.01 0.01
0.20 0.17 0.12 0.10 0.10 0.09 0.09 0.13 0.15 0.13 0.11 0.12 0.09 0.04 0.01 0.01 0.01 0.01 0.01 0.01 0.01 0.02 0.02 0.02 0.02 0.01 0.01 0.01 0.02 0.03 0.06 0.11 0.18 0.21 0.20 0.17 0.14 0.12 0.10 0.07 0.06 0.04 0.04
0.24 0.20 0.17 0.17 0.19 0.18 0.15 0.15 0.16 0.14 0.14 0.16 0.14 0.10 0.04 0.00 0.00 0.01 0.01 0.01 0.02 0.02 0.02 0.03 0.03 0.02 0.02 0.01 0.01 0.02 0.03 0.07 0.14 0.22 0.25 0.24 0.22 0.20 0.17 0.16 0.15 0.12 0.10
0.30 0.27 0.26 0.27 0.26 0.24 0.19 0.20 0.21 0.20 0.18 0.17 0.17 0.17 0.10 0.03 0.02 0.01 0.01 0.02 0.02 0.02 0.02 0.03 0.03 0.03 0.03 0.02 0.02 0.03 0.04 0.05 0.09 0.17 0.26 0.30 0.29 0.28 0.27 0.26 0.26 0.25 0.22
0.35 0.34 0.33 0.32 0.30 0.27 0.23 0.23 0.24 0.24 0.21 0.17 0.15 0.13 0.13 0.10 0.09 0.05 0.02 0.03 0.03 0.02 0.03 0.04 0.04 0.04 0.04 0.04 0.05 0.05 0.06 0.07 0.09 0.15 0.25 0.36 0.42 0.43 0.45 0.45 0.44 0.45 0.43
0.26 0.30 0.31 0.32 0.29 0.28 0.28 0.27 0.26 0.27 0.24 0.21 0.19 0.19 0.18 0.13 0.09 0.11 0.08 0.05 0.05 0.06 0.06 0.05 0.05 0.05 0.06 0.07 0.08 0.10 0.12 0.12 0.15 0.20 0.27 0.39 0.53 0.62 0.65 0.66 0.63 0.61 0.58
0.18 0.21 0.25 0.27 0.29 0.31 0.31 0.33 0.35 0.36 0.33 0.29 0.24 0.23 0.24 0.20 0.14 0.14 0.15 0.11 0.10 0.09 0.07 0.07 0.07 0.08 0.09 0.11 0.13 0.19 0.21 0.23 0.26 0.30 0.38 0.49 0.62 0.73 0.79 0.82 0.82 0.79 0.74
0.13 0.16 0.22 0.26 0.30 0.35 0.41 0.43 0.41 0.39 0.40 0.36 0.31 0.26 0.26 0.25 0.23 0.23 0.23 0.18 0.14 0.12 0.11 0.11 0.12 0.13 0.15 0.18 0.24 0.32 0.36 0.39 0.40 0.45 0.53 0.65 0.72 0.75 0.75 0.79 0.89 0.94 0.91
0.18 0.23 0.26 0.29 0.32 0.35 0.37 0.39 0.41 0.40 0.41 0.39 0.37 0.32 0.27 0.25 0.26 0.28 0.31 0.35 0.34 0.28 0.24 0.24 0.24 0.27 0.30 0.35 0.42 0.50 0.49 0.55 0.57 0.63 0.74 0.87 0.84 0.75 0.68 0.69 0.74 0.81 0.80
0.19 0.21 0.25 0.26 0.27 0.29 0.32 0.34 0.36 0.36 0.36 0.35 0.34 0.34 0.31 0.30 0.32 0.36 0.43 0.52 0.63 0.63 0.53 0.45 0.45 0.47 0.49 0.52 0.58 0.57 0.55 0.65 0.69 0.72 0.76 0.77 0.69 0.61 0.58 0.58 0.59 0.62 0.59
0.14 0.16 0.19 0.21 0.22 0.23 0.24 0.26 0.26 0.27 0.27 0.26 0.27 0.30 0.33 0.35 0.39 0.42 0.48 0.55 0.63 0.71 0.70 0.57 0.52 0.54 0.60 0.62 0.65 0.58 0.55 0.62 0.62 0.62 0.63 0.59 0.53 0.49 0.46 0.44 0.42 0.42 0.42
0.13 0.15 0.17 0.18 0.18 0.18 0.17 0.17 0.17 0.16 0.17 0.17 0.18 0.21 0.24 0.27 0.31 0.37 0.42 0.50 0.60 0.70 0.78 0.72 0.66 0.65 0.66 0.62 0.58 0.49 0.43 0.41 0.41 0.44 0.43 0.39 0.36 0.34 0.32 0.31 0.31 0.32 0.33
0.13 0.15 0.15 0.14 0.13 0.13 0.12 0.11 0.11 0.11 0.12 0.13 0.15 0.17 0.20 0.22 0.26 0.30 0.37 0.46 0.55 0.62 0.67 0.65 0.59 0.53 0.47 0.40 0.34 0.29 0.24 0.21 0.20 0.23 0.23 0.21 0.20 0.19 0.17 0.17 0.18 0.19 0.20
0.12 0.11 0.10 0.10 0.09 0.09 0.08 0.08 0.09 0.10 0.11 0.12 0.14 0.17 0.20 0.23 0.27 0.31 0.38 0.44 0.48 0.48 0.47 0.43 0.38 0.32 0.27 0.22 0.19 0.14 0.11 0.09 0.07 0.08 0.08 0.08 0.07 0.07 0.07 0.07 0.08 0.08 0.08
0.09 0.07 0.06 0.06 0.06 0.07 0.07 0.08 0.09 0.10 0.12 0.15 0.18 0.23 0.27 0.33 0.39 0.44 0.45 0.45 0.41 0.35 0.30 0.26 0.24 0.20 0.16 0.12 0.09 0.07 0.05 0.04 0.03 0.02 0.02 0.02 0.02 0.02 0.02 0.01 0.01 0.02 0.02
0.05 0.05 0.05 0.06 0.06 0.08 0.09 0.10 0.11 0.13 0.17 0.21 0.26 0.32 0.38 0.45 0.47 0.42 0.35 0.29 0.24 0.20 0.20 0.21 0.18 0.13 0.08 0.06 0.05 0.03 0.03 0.03 0.01 0.01 0.00 0.00 0.00 0.00 0.00 0.00 0.00 0.00 0.01
0.08 0.08 0.09 0.10 0.11 0.12 0.19 0.18 0.15 0.17 0.24 0.30 0.34 0.36 0.37 0.37 0.32 0.28 0.22 0.18 0.16 0.19 0.19 0.15 0.10 0.06 0.03 0.02 0.02 0.03 0.04 0.05 0.04 0.00 0.00 0.00 0.00 0.00 0.00 0.00 0.00 0.00 0.01
0.17 0.17 0.16 0.16 0.18 0.24 0.31 0.30 0.31 0.30 0.32 0.35 0.33 0.30 0.25 0.21 0.17 0.13 0.12 0.12 0.13 0.12 0.09 0.06 0.04 0.02 0.01 0.01 0.04 0.07 0.07 0.08 0.05 0.01 0.01 0.00 0.00 0.00 0.00 0.00 0.00 0.00 0.01
0.36 0.36 0.35 0.35 0.36 0.42 0.45 0.40 0.36 0.31 0.29 0.27 0.23 0.18 0.14 0.10 0.08 0.07 0.08 0.08 0.05 0.02 0.01 0.01 0.01 0.01 0.02 0.03 0.05 0.10 0.08 0.05 0.02 0.00 0.00 0.00 0.00 0.00 0.00 0.00 0.00 0.00 0.00
0.63 0.62 0.61 0.59 0.56 0.53 0.46 0.34 0.26 0.21 0.17 0.13 0.09 0.06 0.05 0.03 0.03 0.05 0.06 0.04 0.01 0.00 0.00 0.00 0.02 0.02 0.02 0.02 0.02 0.02 0.03 0.06 0.05 0.00 0.00 0.00 0.00 0.00 0.00 0.00 0.00 0.00 0.00
0.60 0.57 0.55 0.50 0.44 0.36 0.27 0.18 0.11 0.08 0.05 0.03 0.01 0.01 0.01 0.01 0.03 0.06 0.05 0.03 0.01 0.00 0.01 0.01 0.00 0.00 0.00 0.00 0.00 0.00 0.03 0.14 0.15 0.08 0.00 0.02 0.03 0.05 0.09 0.01 0.00 0.00 0.00

GEFSMA_prec_meanprecacc_072.txt.gz
Total_Precipitation_Accumulation
0.00 0.00 0.01 0.01 0.01 0.00 0.00 0.00 0.00 0.00 0.00 0.00 0.00 0.00 0.00 0.00 0.00 0.00 0.00 0.00 0.00 0.01 0.01 0.02 0.04 0.07 0.06 0.08 0.08 0.06 0.04 0.02 0.01 0.01 0.00 0.00 0.00 0.00 0.00 0.00 0.00 0.01 0.01
0.00 0.00 0.00 0.01 0.01 0.00 0.00 0.00 0.00 0.00 0.00 0.00 0.00 0.00 0.00 0.00 0.00 0.00 0.00 0.00 0.00 0.00 0.01 0.02 0.04 0.07 0.09 0.10 0.12 0.12 0.09 0.06 0.04 0.02 0.01 0.01 0.00 0.00 0.00 0.00 0.00 0.00 0.00
0.00 0.00 0.00 0.00 0.00 0.01 0.00 0.00 0.00 0.00 0.00 0.00 0.00 0.00 0.00 0.00 0.00 0.00 0.00 0.00 0.00 0.00 0.00 0.02 0.04 0.07 0.10 0.12 0.15 0.17 0.17 0.13 0.08 0.05 0.03 0.02 0.01 0.01 0.00 0.00 0.00 0.00 0.00
0.01 0.00 0.00 0.01 0.01 0.01 0.01 0.02 0.02 0.02 0.01 0.01 0.01 0.01 0.01 0.01 0.01 0.00 0.00 0.00 0.00 0.00 0.00 0.01 0.03 0.05 0.08 0.09 0.13 0.18 0.21 0.18 0.12 0.09 0.07 0.06 0.04 0.03 0.01 0.01 0.00 0.00 0.00
0.06 0.03 0.02 0.02 0.02 0.02 0.03 0.04 0.04 0.04 0.04 0.04 0.04 0.03 0.03 0.02 0.01 0.01 0.01 0.01 0.01 0.01 0.01 0.01 0.01 0.02 0.03 0.04 0.07 0.13 0.19 0.23 0.18 0.13 0.11 0.10 0.08 0.06 0.04 0.03 0.02 0.01 0.00
0.15 0.11 0.06 0.06 0.06 0.05 0.05 0.06 0.08 0.09 0.07 0.07 0.06 0.03 0.02 0.02 0.01 0.01 0.01 0.01 0.01 0.02 0.02 0.01 0.01 0.01 0.01 0.02 0.04 0.06 0.12 0.19 0.21 0.19 0.15 0.14 0.12 0.11 0.10 0.09 0.07 0.05 0.03
0.25 0.21 0.14 0.11 0.10 0.09 0.09 0.13 0.16 0.13 0.11 0.12 0.09 0.04 0.01 0.01 0.01 0.01 0.01 0.01 0.01 0.02 0.02 0.02 0.02 0.01 0.01 0.01 0.02 0.03 0.06 0.12 0.19 0.22 0.21 0.20 0.18 0.17 0.16 0.15 0.15 0.13 0.09
0.31 0.26 0.22 0.21 0.22 0.20 0.17 0.18 0.18 0.15 0.15 0.17 0.15 0.12 0.04 0.01 0.00 0.01 0.01 0.01 0.02 0.02 0.02 0.03 0.03 0.02 0.02 0.01 0.02 0.02 0.03 0.07 0.14 0.22 0.26 0.25 0.25 0.24 0.23 0.23 0.23 0.22 0.19
0.39 0.34 0.32 0.32 0.30 0.28 0.23 0.24 0.25 0.24 0.21 0.19 0.18 0.19 0.11 0.03 0.02 0.01 0.01 0.02 0.02 0.02 0.02 0.03 0.03 0.03 0.03 0.02 0.02 0.03 0.04 0.05 0.09 0.17 0.27 0.31 0.31 0.31 0.32 0.33 0.34 0.33 0.32
0.48 0.44 0.41 0.38 0.36 0.33 0.28 0.28 0.29 0.27 0.24 0.19 0.17 0.15 0.15 0.11 0.10 0.05 0.02 0.03 0.03 0.02 0.03 0.04 0.04 0.04 0.04 0.04 0.05 0.05 0.06 0.07 0.10 0.16 0.26 0.37 0.43 0.45 0.48 0.51 0.52 0.54 0.51
0.37 0.39 0.40 0.39 0.36 0.34 0.33 0.33 0.32 0.30 0.26 0.22 0.20 0.20 0.19 0.13 0.10 0.12 0.08 0.05 0.05 0.06 0.06 0.05 0.05 0.05 0.06 0.07 0.08 0.10 0.12 0.13 0.16 0.21 0.29 0.41 0.55 0.64 0.67 0.69 0.69 0.69 0.67
0.29 0.30 0.33 0.33 0.34 0.34 0.35 0.36 0.38 0.37 0.34 0.29 0.24 0.23 0.24 0.20 0.14 0.14 0.16 0.12 0.10 0.09 0.07 0.07 0.07 0.08 0.09 0.11 0.14 0.19 0.22 0.23 0.26 0.32 0.40 0.52 0.64 0.74 0.80 0.84 0.86 0.86 0.81
0.22 0.23 0.28 0.31 0.34 0.38 0.44 0.45 0.42 0.40 0.40 0.36 0.31 0.26 0.26 0.25 0.23 0.23 0.23 0.19 0.14 0.12 0.11 0.11 0.12 0.13 0.15 0.18 0.24 0.33 0.36 0.39 0.41 0.45 0.55 0.67 0.73 0.76 0.75 0.80 0.91 0.98 0.97
0.25 0.29 0.31 0.33 0.35 0.38 0.38 0.40 0.41 0.41 0.41 0.39 0.37 0.32 0.27 0.25 0.26 0.29 0.32 0.36 0.35 0.28 0.24 0.24 0.24 0.27 0.30 0.35 0.43 0.51 0.49 0.55 0.58 0.63 0.74 0.88 0.84 0.75 0.69 0.70 0.76 0.83 0.84
0.23 0.25 0.28 0.28 0.29 0.30 0.32 0.34 0.36 0.37 0.36 0.35 0.34 0.34 0.31 0.30 0.32 0.36 0.43 0.53 0.64 0.64 0.54 0.45 0.45 0.47 0.49 0.52 0.59 0.57 0.55 0.65 0.69 0.72 0.77 0.77 0.69 0.62 0.58 0.59 0.61 0.63 0.62
0.17 0.18 0.21 0.22 0.22 0.23 0.24 0.26 0.26 0.27 0.27 0.26 0.27 0.30 0.33 0.35 0.39 0.42 0.48 0.55 0.63 0.72 0.70 0.57 0.52 0.55 0.60 0.62 0.66 0.59 0.55 0.62 0.62 0.63 0.63 0.60 0.54 0.50 0.46 0.44 0.43 0.44 0.44
0.14 0.16 0.18 0.18 0.18 0.18 0.18 0.17 0.17 0.16 0.17 0.17 0.18 0.21 0.24 0.27 0.31 0.37 0.42 0.50 0.60 0.71 0.79 0.72 0.66 0.66 0.66 0.63 0.58 0.49 0.43 0.41 0.41 0.45 0.43 0.40 0.37 0.35 0.33 0.32 0.33 0.35 0.35
0.14 0.16 0.16 0.15 0.13 0.13 0.12 0.11 0.11 0.11 0.12 0.13 0.15 0.17 0.20 0.22 0.26 0.30 0.37 0.46 0.55 0.62 0.67 0.65 0.59 0.53 0.48 0.41 0.35 0.29 0.24 0.21 0.20 0.24 0.23 0.21 0.20 0.19 0.17 0.17 0.19 0.21 0.21
0.12 0.12 0.11 0.10 0.09 0.09 0.08 0.08 0.09 0.10 0.11 0.12 0.14 0.17 0.20 0.23 0.27 0.32 0.38 0.44 0.48 0.48 0.47 0.44 0.38 0.32 0.27 0.23 0.19 0.14 0.11 0.09 0.07 0.08 0.08 0.08 0.07 0.07 0.07 0.08 0.09 0.09 0.09
0.09 0.08 0.06 0.06 0.06 0.07 0.07 0.08 0.09 0.10 0.12 0.15 0.18 0.23 0.27 0.33 0.39 0.44 0.45 0.45 0.41 0.35 0.31 0.27 0.24 0.20 0.16 0.12 0.09 0.07 0.05 0.04 0.03 0.02 0.02 0.02 0.02 0.02 0.02 0.02 0.02 0.02 0.02
0.05 0.05 0.05 0.06 0.06 0.08 0.09 0.10 0.11 0.13 0.17 0.21 0.26 0.32 0.38 0.46 0.47 0.42 0.35 0.29 0.24 0.20 0.20 0.22 0.19 0.13 0.08 0.06 0.05 0.04 0.03 0.03 0.01 0.01 0.01 0.00 0.00 0.00 0.00 0.00 0.00 0.00 0.01
0.08 0.08 0.09 0.10 0.11 0.12 0.20 0.18 0.15 0.17 0.24 0.30 0.34 0.36 0.37 0.37 0.32 0.28 0.22 0.18 0.16 0.19 0.19 0.15 0.10 0.06 0.03 0.02 0.02 0.03 0.04 0.05 0.04 0.00 0.00 0.00 0.00 0.00 0.00 0.00 0.00 0.00 0.01
0.17 0.17 0.16 0.16 0.18 0.24 0.31 0.30 0.32 0.30 0.33 0.35 0.33 0.30 0.25 0.21 0.17 0.13 0.12 0.12 0.13 0.12 0.09 0.06 0.04 0.02 0.01 0.01 0.04 0.07 0.07 0.08 0.05 0.01 0.01 0.00 0.00 0.00 0.00 0.00 0.00 0.00 0.01
0.36 0.36 0.35 0.35 0.36 0.42 0.45 0.40 0.36 0.31 0.29 0.27 0.23 0.18 0.14 0.10 0.08 0.07 0.08 0.08 0.05 0.02 0.01 0.01 0.01 0.01 0.02 0.03 0.05 0.10 0.08 0.05 0.02 0.00 0.00 0.00 0.00 0.00 0.00 0.00 0.00 0.00 0.00
0.63 0.62 0.61 0.59 0.56 0.53 0.46 0.34 0.26 0.21 0.17 0.13 0.09 0.06 0.05 0.03 0.03 0.05 0.06 0.04 0.01 0.00 0.00 0.00 0.02 0.02 0.02 0.02 0.02 0.02 0.03 0.06 0.05 0.00 0.00 0.00 0.00 0.00 0.00 0.00 0.00 0.00 0.00
0.60 0.57 0.55 0.50 0.44 0.36 0.27 0.18 0.11 0.08 0.05 0.03 0.01 0.01 0.01 0.01 0.03 0.06 0.05 0.03 0.01 0.00 0.01 0.01 0.00 0.00 0.00 0.00 0.00 0.00 0.03 0.14 0.15 0.08 0.00 0.02 0.03 0.05 0.09 0.01 0.00 0.00 0.00

GEFSMA_prec_meanprecacc_078.txt.gz
Total_Precipitation_Accumulation
0.00 0.00 0.01 0.01 0.01 0.00 0.00 0.00 0.00 0.00 0.00 0.00 0.00 0.00 0.00 0.00 0.00 0.00 0.00 0.00 0.00 0.01 0.01 0.02 0.05 0.08 0.09 0.10 0.10 0.10 0.07 0.03 0.02 0.02 0.01 0.00 0.00 0.00 0.00 0.00 0.00 0.01 0.01
0.00 0.00 0.00 0.01 0.01 0.00 0.00 0.00 0.00 0.00 0.00 0.00 0.00 0.00 0.00 0.00 0.00 0.00 0.00 0.00 0.00 0.00 0.01 0.03 0.05 0.08 0.11 0.14 0.15 0.16 0.13 0.08 0.06 0.04 0.02 0.01 0.01 0.00 0.00 0.00 0.00 0.00 0.00
0.00 0.00 0.00 0.00 0.00 0.01 0.00 0.00 0.00 0.00 0.00 0.00 0.00 0.00 0.00 0.00 0.00 0.00 0.00 0.00 0.00 0.00 0.00 0.02 0.04 0.08 0.12 0.15 0.18 0.20 0.19 0.15 0.10 0.07 0.05 0.04 0.03 0.02 0.01 0.01 0.00 0.00 0.00
0.02 0.01 0.01 0.01 0.01 0.01 0.01 0.02 0.02 0.02 0.01 0.01 0.01 0.01 0.01 0.01 0.01 0.00 0.00 0.00 0.00 0.00 0.00 0.01 0.03 0.06 0.09 0.10 0.14 0.19 0.23 0.20 0.14 0.10 0.09 0.08 0.06 0.05 0.04 0.02 0.01 0.00 0.00
0.09 0.06 0.03 0.03 0.03 0.03 0.04 0.04 0.04 0.04 0.04 0.04 0.04 0.04 0.03 0.02 0.01 0.01 0.01 0.01 0.01 0.01 0.01 0.01 0.01 0.02 0.03 0.05 0.08 0.14 0.20 0.24 0.19 0.14 0.12 0.12 0.10 0.08 0.07 0.06 0.05 0.03 0.02
0.20 0.16 0.11 0.09 0.08 0.06 0.06 0.07 0.09 0.09 0.08 0.08 0.07 0.04 0.02 0.02 0.02 0.01 0.01 0.01 0.01 0.02 0.02 0.01 0.01 0.01 0.01 0.03 0.04 0.07 0.12 0.19 0.21 0.19 0.16 0.16 0.15 0.14 0.13 0.12 0.11 0.10 0.07
0.32 0.28 0.20 0.16 0.15 0.12 0.11 0.14 0.16 0.14 0.12 0.13 0.10 0.04 0.02 0.01 0.01 0.01 0.01 0.01 0.01 0.02 0.02 0.02 0.02 0.01 0.01 0.02 0.02 0.03 0.06 0.12 0.19 0.23 0.22 0.21 0.20 0.19 0.19 0.19 0.19 0.17 0.14
0.44 0.39 0.34 0.33 0.31 0.26 0.21 0.19 0.19 0.16 0.16 0.19 0.17 0.13 0.05 0.01 0.00 0.01 0.01 0.01 0.02 0.02 0.02 0.03 0.03 0.02 0.02 0.02 0.02 0.02 0.03 0.07 0.15 0.23 0.27 0.26 0.25 0.25 0.26 0.27 0.28 0.27 0.24
0.60 0.54 0.50 0.49 0.43 0.36 0.28 0.28 0.29 0.28 0.25 0.23 0.22 0.22 0.13 0.04 0.03 0.01 0.01 0.02 0.02 0.02 0.02 0.03 0.03 0.03 0.03 0.02 0.03 0.03 0.04 0.05 0.10 0.19 0.28 0.32 0.31 0.32 0.35 0.37 0.39 0.39 0.37
0.72 0.68 0.65 0.60 0.54 0.46 0.38 0.35 0.35 0.33 0.29 0.23 0.20 0.17 0.17 0.12 0.11 0.06 0.02 0.03 0.03 0.02 0.03 0.04 0.04 0.04 0.04 0.04 0.05 0.05 0.07 0.07 0.10 0.17 0.27 0.39 0.45 0.46 0.50 0.53 0.56 0.60 0.57
0.65 0.68 0.67 0.64 0.57 0.49 0.44 0.41 0.38 0.36 0.31 0.27 0.23 0.21 0.20 0.14 0.11 0.13 0.08 0.05 0.05 0.06 0.06 0.05 0.05 0.05 0.06 0.07 0.08 0.10 0.13 0.13 0.16 0.22 0.31 0.43 0.57 0.65 0.69 0.71 0.72 0.73 0.72
0.59 0.59 0.61 0.56 0.52 0.47 0.44 0.44 0.44 0.42 0.38 0.32 0.26 0.25 0.25 0.21 0.14 0.15 0.16 0.12 0.10 0.09 0.07 0.07 0.07 0.08 0.09 0.11 0.14 0.19 0.22 0.23 0.26 0.33 0.42 0.54 0.65 0.75 0.81 0.85 0.88 0.88 0.85
0.53 0.50 0.51 0.50 0.49 0.49 0.52 0.52 0.48 0.45 0.43 0.38 0.32 0.27 0.26 0.25 0.23 0.23 0.24 0.19 0.15 0.12 0.11 0.11 0.12 0.13 0.15 0.18 0.24 0.34 0.36 0.39 0.41 0.46 0.57 0.68 0.74 0.76 0.76 0.81 0.92 1.00 1.00
0.48 0.52 0.50 0.48 0.47 0.46 0.44 0.45 0.46 0.44 0.43 0.41 0.37 0.32 0.28 0.25 0.26 0.29 0.32 0.36 0.35 0.29 0.24 0.24 0.24 0.27 0.30 0.35 0.43 0.51 0.49 0.56 0.58 0.64 0.75 0.88 0.85 0.75 0.69 0.70 0.77 0.84 0.86
0.41 0.40 0.41 0.39 0.37 0.36 0.36 0.37 0.38 0.38 0.37 0.36 0.35 0.34 0.31 0.30 0.32 0.36 0.43 0.53 0.65 0.65 0.54 0.45 0.45 0.47 0.49 0.52 0.60 0.58 0.55 0.66 0.70 0.73 0.77 0.77 0.70 0.62 0.59 0.60 0.61 0.64 0.63
0.32 0.31 0.30 0.28 0.26 0.26 0.25 0.26 0.27 0.27 0.27 0.26 0.27 0.30 0.33 0.35 0.39 0.42 0.48 0.55 0.64 0.73 0.71 0.57 0.52 0.55 0.60 0.63 0.67 0.59 0.56 0.64 0.63 0.63 0.64 0.60 0.54 0.50 0.47 0.45 0.43 0.44 0.45
0.22 0.23 0.23 0.22 0.20 0.19 0.18 0.18 0.17 0.16 0.17 0.17 0.18 0.21 0.25 0.27 0.32 0.37 0.42 0.51 0.60 0.71 0.79 0.73 0.66 0.66 0.66 0.63 0.59 0.50 0.44 0.42 0.41 0.45 0.43 0.40 0.37 0.35 0.33 0.32 0.33 0.35 0.36
0.17 0.19 0.19 0.17 0.15 0.14 0.13 0.12 0.12 0.12 0.12 0.14 0.15 0.17 0.20 0.22 0.26 0.30 0.37 0.46 0.55 0.62 0.67 0.65 0.59 0.54 0.48 0.41 0.35 0.30 0.25 0.22 0.21 0.24 0.23 0.22 0.21 0.19 0.18 0.18 0.20 0.22 0.22
0.13 0.13 0.12 0.11 0.10 0.09 0.09 0.08 0.09 0.10 0.11 0.12 0.14 0.17 0.20 0.23 0.27 0.32 0.38 0.44 0.48 0.49 0.47 0.44 0.38 0.33 0.27 0.23 0.19 0.15 0.11 0.09 0.08 0.08 0.08 0.08 0.07 0.07 0.07 0.09 0.10 0.10 0.10
0.10 0.08 0.07 0.06 0.06 0.07 0.08 0.08 0.09 0.10 0.12 0.15 0.18 0.23 0.27 0.33 0.39 0.44 0.45 0.45 0.41 0.35 0.31 0.27 0.24 0.21 0.16 0.12 0.09 0.08 0.06 0.04 0.03 0.02 0.02 0.02 0.02 0.02 0.02 0.02 0.03 0.03 0.03
0.06 0.05 0.06 0.06 0.07 0.08 0.09 0.10 0.11 0.13 0.17 0.21 0.26 0.32 0.38 0.46 0.47 0.42 0.35 0.29 0.24 0.20 0.20 0.22 0.19 0.13 0.09 0.06 0.05 0.04 0.04 0.03 0.02 0.01 0.01 0.00 0.00 0.00 0.00 0.00 0.01 0.01 0.01
0.08 0.08 0.09 0.10 0.11 0.12 0.20 0.18 0.15 0.17 0.24 0.30 0.34 0.36 0.37 0.38 0.32 0.28 0.22 0.18 0.16 0.19 0.19 0.15 0.10 0.07 0.04 0.02 0.02 0.03 0.04 0.06 0.04 0.00 0.01 0.00 0.00 0.00 0.00 0.00 0.00 0.01 0.01
0.17 0.17 0.16 0.16 0.18 0.24 0.31 0.30 0.32 0.30 0.33 0.35 0.33 0.30 0.25 0.21 0.18 0.13 0.12 0.12 0.13 0.13 0.09 0.06 0.04 0.02 0.01 0.02 0.05 0.08 0.07 0.08 0.05 0.01 0.01 0.01 0.00 0.00 0.00 0.00 0.00 0.00 0.01
0.36 0.36 0.35 0.35 0.36 0.42 0.45 0.40 0.36 0.31 0.29 0.27 0.23 0.18 0.14 0.11 0.08 0.07 0.08 0.09 0.05 0.02 0.01 0.01 0.01 0.01 0.02 0.03 0.06 0.10 0.09 0.06 0.02 0.00 0.00 0.01 0.00 0.00 0.00 0.00 0.00 0.00 0.00
0.63 0.62 0.61 0.59 0.56 0.53 0.46 0.35 0.26 0.21 0.17 0.13 0.09 0.06 0.05 0.04 0.03 0.05 0.06 0.04 0.01 0.00 0.00 0.01 0.02 0.02 0.03 0.03 0.03 0.03 0.03 0.07 0.05 0.00 0.00 0.00 0.00 0.00 0.00 0.00 0.00 0.00 0.00
0.60 0.57 0.55 0.50 0.44 0.36 0.27 0.18 0.11 0.08 0.05 0.03 0.01 0.01 0.01 0.01 0.03 0.06 0.05 0.03 0.01 0.00 0.01 0.01 0.00 0.00 0.00 0.00 0.00 0.00 0.03 0.14 0.15 0.08 0.00 0.02 0.03 0.05 0.09 0.01 0.00 0.00 0.00

GEFSMA_prec_meanprecacc_084.txt.gz
Total_Precipitation_Accumulation
0.00 0.00 0.01 0.01 0.01 0.00 0.00 0.00 0.00 0.00 0.00 0.00 0.00 0.00 0.00 0.00 0.00 0.00 0.00 0.00 0.00 0.01 0.01 0.02 0.05 0.09 0.10 0.12 0.12 0.12 0.09 0.05 0.03 0.02 0.01 0.00 0.00 0.00 0.00 0.00 0.00 0.01 0.01
0.00 0.00 0.00 0.01 0.01 0.00 0.00 0.00 0.00 0.00 0.00 0.00 0.00 0.00 0.00 0.00 0.00 0.00 0.00 0.00 0.00 0.00 0.01 0.03 0.05 0.09 0.12 0.16 0.17 0.17 0.15 0.10 0.07 0.05 0.03 0.02 0.01 0.01 0.01 0.00 0.00 0.00 0.00
0.01 0.01 0.00 0.01 0.01 0.01 0.00 0.00 0.00 0.00 0.00 0.00 0.00 0.00 0.00 0.00 0.00 0.00 0.00 0.00 0.00 0.00 0.00 0.02 0.04 0.08 0.13 0.16 0.19 0.22 0.21 0.16 0.11 0.08 0.07 0.05 0.04 0.03 0.02 0.01 0.01 0.01 0.00
0.04 0.02 0.02 0.02 0.03 0.02 0.02 0.02 0.02 0.02 0.02 0.01 0.01 0.01 0.02 0.01 0.01 0.00 0.00 0.00 0.00 0.00 0.00 0.01 0.03 0.06 0.09 0.11 0.15 0.20 0.24 0.21 0.14 0.11 0.09 0.09 0.07 0.06 0.05 0.04 0.03 0.02 0.01
0.11 0.08 0.05 0.06 0.06 0.05 0.06 0.06 0.05 0.05 0.05 0.04 0.04 0.04 0.03 0.02 0.01 0.01 0.01 0.01 0.01 0.01 0.01 0.01 0.01 0.02 0.03 0.05 0.08 0.15 0.21 0.24 0.20 0.15 0.13 0.12 0.11 0.10 0.08 0.08 0.07 0.05 0.03
0.22 0.18 0.12 0.11 0.10 0.08 0.08 0.09 0.10 0.10 0.08 0.09 0.07 0.04 0.02 0.02 0.02 0.01 0.01 0.01 0.01 0.02 0.02 0.01 0.01 0.01 0.01 0.03 0.05 0.08 0.13 0.20 0.21 0.19 0.17 0.17 0.16 0.15 0.15 0.14 0.14 0.12 0.10
0.36 0.30 0.22 0.19 0.18 0.15 0.14 0.17 0.18 0.16 0.14 0.15 0.11 0.05 0.02 0.01 0.01 0.02 0.02 0.02 0.02 0.02 0.02 0.02 0.02 0.02 0.02 0.02 0.03 0.04 0.08 0.13 0.19 0.23 0.22 0.21 0.20 0.20 0.21 0.22 0.22 0.21 0.17
0.52 0.45 0.39 0.37 0.35 0.31 0.26 0.24 0.23 0.20 0.20 0.22 0.20 0.15 0.06 0.02 0.02 0.03 0.02 0.02 0.02 0.03 0.03 0.03 0.03 0.02 0.02 0.02 0.02 0.03 0.04 0.08 0.15 0.24 0.28 0.27 0.26 0.26 0.27 0.29 0.32 0.31 0.28
0.74 0.66 0.60 0.57 0.51 0.44 0.37 0.37 0.38 0.35 0.32 0.30 0.27 0.26 0.16 0.07 0.05 0.03 0.03 0.02 0.02 0.02 0.03 0.03 0.03 0.03 0.03 0.03 0.03 0.03 0.04 0.06 0.11 0.20 0.29 0.33 0.32 0.33 0.36 0.39 0.42 0.44 0.43
0.87 0.84 0.82 0.75 0.69 0.60 0.51 0.48 0.48 0.46 0.41 0.33 0.27 0.22 0.22 0.17 0.14 0.08 0.04 0.04 0.03 0.02 0.03 0.04 0.04 0.04 0.04 0.04 0.05 0.06 0.07 0.07 0.11 0.18 0.29 0.40 0.47 0.48 0.51 0.55 0.58 0.63 0.63
0.82 0.82 0.81 0.78 0.71 0.64 0.60 0.57 0.52 0.49 0.43 0.37 0.31 0.28 0.26 0.18 0.13 0.15 0.10 0.06 0.06 0.06 0.06 0.05 0.05 0.05 0.06 0.07 0.08 0.10 0.13 0.13 0.16 0.23 0.32 0.45 0.60 0.68 0.71 0.73 0.74 0.76 0.76
0.78 0.77 0.76 0.71 0.66 0.62 0.61 0.60 0.58 0.54 0.48 0.41 0.34 0.31 0.29 0.24 0.16 0.16 0.17 0.12 0.11 0.09 0.07 0.07 0.07 0.08 0.09 0.11 0.14 0.19 0.22 0.24 0.27 0.34 0.44 0.56 0.67 0.77 0.82 0.86 0.89 0.89 0.87
0.67 0.66 0.70 0.69 0.69 0.68 0.70 0.68 0.64 0.58 0.54 0.47 0.40 0.33 0.31 0.28 0.25 0.24 0.25 0.20 0.15 0.12 0.11 0.11 0.12 0.13 0.15 0.18 0.24 0.34 0.37 0.39 0.42 0.47 0.58 0.70 0.75 0.76 0.76 0.81 0.93 1.02 1.02
0.60 0.64 0.65 0.66 0.67 0.66 0.63 0.62 0.60 0.57 0.55 0.51 0.46 0.39 0.32 0.29 0.28 0.30 0.33 0.37 0.36 0.29 0.24 0.24 0.24 0.27 0.30 0.35 0.44 0.51 0.49 0.56 0.58 0.64 0.76 0.89 0.85 0.76 0.69 0.71 0.77 0.85 0.87
0.52 0.51 0.53 0.53 0.53 0.54 0.54 0.53 0.52 0.51 0.48 0.46 0.43 0.41 0.36 0.34 0.35 0.38 0.44 0.54 0.65 0.65 0.54 0.45 0.45 0.47 0.49 0.52 0.60 0.58 0.55 0.67 0.71 0.73 0.78 0.78 0.70 0.62 0.59 0.60 0.62 0.64 0.64
0.45 0.46 0.47 0.45 0.44 0.45 0.44 0.44 0.41 0.39 0.37 0.34 0.33 0.34 0.36 0.37 0.40 0.43 0.48 0.55 0.64 0.73 0.72 0.57 0.52 0.55 0.60 0.63 0.67 0.59 0.56 0.64 0.63 0.64 0.64 0.61 0.55 0.50 0.48 0.46 0.44 0.45 0.46
0.32 0.35 0.38 0.38 0.36 0.34 0.32 0.29 0.27 0.25 0.24 0.23 0.22 0.23 0.26 0.28 0.32 0.37 0.42 0.51 0.60 0.71 0.80 0.73 0.66 0.66 0.67 0.63 0.59 0.50 0.44 0.42 0.42 0.47 0.44 0.40 0.37 0.35 0.33 0.33 0.34 0.36 0.37
0.24 0.27 0.27 0.24 0.23 0.23 0.22 0.20 0.18 0.16 0.16 0.17 0.17 0.19 0.21 0.22 0.26 0.31 0.37 0.46 0.55 0.63 0.67 0.65 0.59 0.54 0.48 0.41 0.35 0.30 0.25 0.22 0.21 0.25 0.24 0.22 0.21 0.19 0.18 0.18 0.21 0.22 0.23
0.16 0.17 0.16 0.15 0.14 0.13 0.12 0.12 0.12 0.12 0.13 0.14 0.15 0.18 0.20 0.23 0.27 0.32 0.38 0.44 0.48 0.49 0.47 0.44 0.38 0.33 0.27 0.23 0.19 0.15 0.11 0.10 0.08 0.09 0.09 0.09 0.08 0.07 0.08 0.09 0.10 0.10 0.10
0.12 0.10 0.09 0.08 0.09 0.09 0.10 0.10 0.10 0.11 0.13 0.16 0.19 0.23 0.28 0.33 0.40 0.44 0.46 0.45 0.41 0.35 0.31 0.27 0.24 0.21 0.16 0.12 0.10 0.08 0.06 0.04 0.03 0.03 0.03 0.03 0.02 0.02 0.02 0.02 0.03 0.04 0.05
0.07 0.07 0.08 0.08 0.09 0.10 0.11 0.11 0.12 0.14 0.18 0.22 0.27 0.32 0.39 0.46 0.47 0.42 0.35 0.30 0.24 0.20 0.20 0.22 0.19 0.13 0.09 0.06 0.05 0.04 0.04 0.03 0.02 0.01 0.01 0.01 0.01 0.00 0.00 0.01 0.01 0.03 0.03
0.09 0.09 0.10 0.11 0.12 0.13 0.21 0.20 0.16 0.17 0.24 0.30 0.34 0.36 0.37 0.38 0.33 0.28 0.23 0.18 0.16 0.19 0.19 0.15 0.10 0.07 0.04 0.02 0.02 0.03 0.05 0.06 0.04 0.01 0.01 0.01 0.00 0.00 0.00 0.00 0.01 0.02 0.04
0.17 0.18 0.17 0.17 0.18 0.24 0.31 0.30 0.32 0.30 0.33 0.35 0.33 0.30 0.25 0.21 0.18 0.13 0.12 0.13 0.14 0.13 0.09 0.06 0.04 0.02 0.01 0.02 0.05 0.08 0.08 0.09 0.06 0.01 0.01 0.01 0.00 0.00 0.00 0.00 0.00 0.01 0.02
0.36 0.36 0.36 0.35 0.36 0.42 0.45 0.40 0.36 0.31 0.29 0.27 0.23 0.18 0.14 0.11 0.08 0.07 0.08 0.09 0.05 0.02 0.01 0.01 0.01 0.01 0.02 0.03 0.06 0.10 0.09 0.06 0.02 0.01 0.01 0.01 0.00 0.00 0.00 0.00 0.00 0.00 0.01
0.63 0.62 0.61 0.59 0.56 0.54 0.47 0.35 0.26 0.21 0.18 0.13 0.09 0.06 0.05 0.04 0.04 0.05 0.06 0.04 0.01 0.00 0.00 0.01 0.02 0.02 0.03 0.03 0.03 0.03 0.03 0.07 0.05 0.01 0.00 0.00 0.00 0.00 0.00 0.00 0.00 0.00 0.00
0.61 0.58 0.55 0.51 0.45 0.37 0.29 0.20 0.13 0.09 0.06 0.03 0.02 0.01 0.01 0.02 0.03 0.06 0.05 0.03 0.01 0.00 0.01 0.01 0.00 0.00 0.00 0.00 0.00 0.01 0.03 0.14 0.15 0.08 0.00 0.02 0.04 0.05 0.09 0.01 0.00 0.00 0.00